Observation data for Endee on 12/10/2018      Previous  Date       Current Mesonet Observations  Soil Data  Daily Summary Page  Observations in Plain Language
KEN1 100600Z 24006KT M05/M09 A3038 RMK A01 T10521091  RH  074%=      5-min Rain = 0
KEN1 100601Z 24006KT M05/M09 A3038 RMK A01 T10521091  RH  074%=      5-min Rain = 0
KEN1 100602Z 24006KT M05/M09 A3038 RMK A01 T10521091  RH  074%=      5-min Rain = 0
KEN1 100603Z 24006KT M05/M09 A3038 RMK A01 T10511090  RH  074%=      5-min Rain = 0
KEN1 100604Z 25005KT M05/M09 A3038 RMK A01 T10511090  RH  074%=      5-min Rain = 0
KEN1 100605Z 25006KT M05/M09 A3038 RMK A01 T10511091  RH  074%=      5-min Rain = 0
KEN1 100606Z 25005KT M05/M09 A3038 RMK A01 T10511091  RH  073%=      5-min Rain = 0
KEN1 100607Z 25005KT M05/M09 A3038 RMK A01 T10511091  RH  074%=      5-min Rain = 0
KEN1 100608Z 26004KT M05/M09 A3038 RMK A01 T10511090  RH  074%=      5-min Rain = 0
KEN1 100609Z 26004KT M05/M09 A3038 RMK A01 T10511090  RH  074%=      5-min Rain = 0
KEN1 100610Z 26004KT M05/M09 A3038 RMK A01 T10511091  RH  074%=      5-min Rain = 0
KEN1 100611Z 25004KT M05/M09 A3038 RMK A01 T10511091  RH  074%=      5-min Rain = 0
KEN1 100612Z 25004KT M05/M09 A3038 RMK A01 T10521092  RH  074%=      5-min Rain = 0
KEN1 100613Z 25004KT M05/M09 A3038 RMK A01 T10521092  RH  074%=      5-min Rain = 0
KEN1 100614Z 25005KT M05/M09 A3038 RMK A01 T10531093  RH  074%=      5-min Rain = 0
KEN1 100615Z 25004KT M05/M09 A3038 RMK A01 T10541093  RH  074%=      5-min Rain = 0
KEN1 100616Z 25004KT M06/M09 A3038 RMK A01 T10551093  RH  075%=      5-min Rain = 0
KEN1 100617Z 25005KT M06/M09 A3038 RMK A01 T10551092  RH  075%=      5-min Rain = 0
KEN1 100618Z 24005KT M06/M09 A3038 RMK A01 T10561092  RH  076%=      5-min Rain = 0
KEN1 100619Z 24005KT M06/M09 A3038 RMK A01 T10561091  RH  076%=      5-min Rain = 0
KEN1 100620Z 23005KT M06/M09 A3038 RMK A01 T10561091  RH  076%=      5-min Rain = 0
KEN1 100621Z 23005KT M06/M09 A3037 RMK A01 T10561091  RH  076%=      5-min Rain = 0
KEN1 100622Z 23005KT M06/M09 A3037 RMK A01 T10561091  RH  076%=      5-min Rain = 0
KEN1 100623Z 22005KT M06/M09 A3037 RMK A01 T10561091  RH  076%=      5-min Rain = 0
KEN1 100624Z 23005KT M06/M09 A3037 RMK A01 T10551090  RH  076%=      5-min Rain = 0
KEN1 100625Z 23005KT M05/M09 A3037 RMK A01 T10541090  RH  076%=      5-min Rain = 0
KEN1 100626Z 23005KT M05/M09 A3037 RMK A01 T10541090  RH  076%=      5-min Rain = 0
KEN1 100627Z 23005KT M05/M09 A3037 RMK A01 T10531090  RH  075%=      5-min Rain = 0
KEN1 100628Z 23005KT M05/M09 A3037 RMK A01 T10531090  RH  075%=      5-min Rain = 0
KEN1 100629Z 24005KT M05/M09 A3037 RMK A01 T10521090  RH  075%=      5-min Rain = 0
KEN1 100630Z 23005KT M05/M09 A3037 RMK A01 T10501089  RH  074%=      5-min Rain = 0
KEN1 100631Z 23004KT M05/M09 A3037 RMK A01 T10501090  RH  074%=      5-min Rain = 0
KEN1 100632Z 22004KT M05/M09 A3037 RMK A01 T10501090  RH  073%=      5-min Rain = 0
KEN1 100633Z 22004KT M05/M09 A3037 RMK A01 T10511091  RH  073%=      5-min Rain = 0
KEN1 100634Z 21004KT M05/M09 A3037 RMK A01 T10511091  RH  074%=      5-min Rain = 0
KEN1 100635Z 20005KT M05/M09 A3037 RMK A01 T10521092  RH  074%=      5-min Rain = 0
KEN1 100636Z 20005KT M05/M09 A3037 RMK A01 T10541092  RH  075%=      5-min Rain = 0
KEN1 100637Z 20005KT M06/M09 A3037 RMK A01 T10551092  RH  075%=      5-min Rain = 0
KEN1 100638Z 21005KT M06/M09 A3037 RMK A01 T10561091  RH  076%=      5-min Rain = 0
KEN1 100639Z 20005KT M06/M09 A3037 RMK A01 T10561090  RH  077%=      5-min Rain = 0
KEN1 100640Z 20005KT M06/M09 A3037 RMK A01 T10551090  RH  077%=      5-min Rain = 0
KEN1 100641Z 20006KT M05/M09 A3037 RMK A01 T10541089  RH  076%=      5-min Rain = 0
KEN1 100642Z 20005KT M05/M09 A3037 RMK A01 T10541090  RH  076%=      5-min Rain = 0
KEN1 100643Z 20005KT M05/M09 A3037 RMK A01 T10541090  RH  076%=      5-min Rain = 0
KEN1 100644Z 20005KT M06/M09 A3037 RMK A01 T10551091  RH  076%=      5-min Rain = 0
KEN1 100645Z 20005KT M06/M09 A3037 RMK A01 T10561091  RH  076%=      5-min Rain = 0
KEN1 100646Z 20005KT M06/M09 A3037 RMK A01 T10581092  RH  077%=      5-min Rain = 0
KEN1 100647Z 21005KT M06/M09 A3037 RMK A01 T10581091  RH  077%=      5-min Rain = 0
KEN1 100648Z 20005KT M06/M09 A3037 RMK A01 T10581091  RH  078%=      5-min Rain = 0
KEN1 100649Z 20005KT M06/M09 A3037 RMK A01 T10581090  RH  078%=      5-min Rain = 0
KEN1 100650Z 20005KT M06/M09 A3037 RMK A01 T10581090  RH  078%=      5-min Rain = 0
KEN1 100651Z 19005KT M06/M09 A3037 RMK A01 T10591091  RH  078%=      5-min Rain = 0
KEN1 100652Z 19005KT M06/M09 A3037 RMK A01 T10581090  RH  078%=      5-min Rain = 0
KEN1 100653Z 19004KT M06/M09 A3036 RMK A01 T10591090  RH  078%=      5-min Rain = 0
KEN1 100654Z 20004KT M06/M09 A3036 RMK A01 T10591091  RH  078%=      5-min Rain = 0
KEN1 100655Z 20005KT M06/M09 A3036 RMK A01 T10581090  RH  078%=      5-min Rain = 0
KEN1 100656Z 20005KT M06/M09 A3036 RMK A01 T10591091  RH  078%=      5-min Rain = 0
KEN1 100657Z 20005KT M06/M09 A3036 RMK A01 T10591091  RH  078%=      5-min Rain = 0
KEN1 100658Z 19005KT M06/M09 A3036 RMK A01 T10591091  RH  078%=      5-min Rain = 0
KEN1 100659Z 19004KT M06/M09 A3036 RMK A01 T10591091  RH  078%=      5-min Rain = 0
KEN1 100700Z 20004KT M06/M09 A3036 RMK A01 T10591091  RH  078%=      5-min Rain = 0
KEN1 100701Z 19003KT M06/M09 A3036 RMK A01 T10601091  RH  078%=      5-min Rain = 0
KEN1 100702Z 19003KT M06/M09 A3036 RMK A01 T10601092  RH  078%=      5-min Rain = 0
KEN1 100703Z 19003KT M06/M09 A3036 RMK A01 T10601092  RH  079%=      5-min Rain = 0
KEN1 100704Z 21003KT M06/M09 A3036 RMK A01 T10601091  RH  079%=      5-min Rain = 0
KEN1 100705Z 21003KT M06/M09 A3036 RMK A01 T10601091  RH  079%=      5-min Rain = 0
KEN1 100706Z 21003KT M06/M09 A3036 RMK A01 T10601091  RH  079%=      5-min Rain = 0
KEN1 100707Z 22003KT M06/M09 A3036 RMK A01 T10601091  RH  079%=      5-min Rain = 0
KEN1 100708Z 22003KT M06/M09 A3036 RMK A01 T10591090  RH  079%=      5-min Rain = 0
KEN1 100709Z 22003KT M06/M09 A3036 RMK A01 T10581089  RH  079%=      5-min Rain = 0
KEN1 100710Z 22003KT M06/M09 A3036 RMK A01 T10571089  RH  078%=      5-min Rain = 0
KEN1 100711Z 21003KT M06/M09 A3036 RMK A01 T10571090  RH  078%=      5-min Rain = 0
KEN1 100712Z 21003KT M06/M09 A3036 RMK A01 T10561090  RH  077%=      5-min Rain = 0
KEN1 100713Z 21003KT M06/M09 A3036 RMK A01 T10571090  RH  077%=      5-min Rain = 0
KEN1 100714Z 20003KT M06/M09 A3036 RMK A01 T10581091  RH  077%=      5-min Rain = 0
KEN1 100715Z 19002KT M06/M09 A3035 RMK A01 T10601093  RH  077%=      5-min Rain = 0
KEN1 100716Z 19002KT M06/M09 A3035 RMK A01 T10611093  RH  078%=      5-min Rain = 0
KEN1 100717Z 20002KT M06/M09 A3035 RMK A01 T10621093  RH  079%=      5-min Rain = 0
KEN1 100718Z 21002KT M06/M09 A3035 RMK A01 T10621092  RH  079%=      5-min Rain = 0
KEN1 100719Z 22003KT M06/M09 A3035 RMK A01 T10621092  RH  080%=      5-min Rain = 0
KEN1 100720Z 22003KT M06/M09 A3035 RMK A01 T10621091  RH  080%=      5-min Rain = 0
KEN1 100721Z 22003KT M06/M09 A3036 RMK A01 T10601090  RH  080%=      5-min Rain = 0
KEN1 100722Z 22003KT M06/M09 A3035 RMK A01 T10601091  RH  079%=      5-min Rain = 0
KEN1 100723Z 22003KT M06/M09 A3035 RMK A01 T10601091  RH  079%=      5-min Rain = 0
KEN1 100724Z 22003KT M06/M09 A3035 RMK A01 T10611091  RH  079%=      5-min Rain = 0
KEN1 100725Z 21003KT M06/M09 A3035 RMK A01 T10601091  RH  079%=      5-min Rain = 0
KEN1 100726Z 21003KT M06/M09 A3035 RMK A01 T10611092  RH  079%=      5-min Rain = 0
KEN1 100727Z 20003KT M06/M09 A3035 RMK A01 T10621092  RH  079%=      5-min Rain = 0
KEN1 100728Z 20003KT M06/M09 A3035 RMK A01 T10621093  RH  079%=      5-min Rain = 0
KEN1 100729Z 20004KT M06/M09 A3035 RMK A01 T10621092  RH  079%=      5-min Rain = 0
KEN1 100730Z 19004KT M06/M09 A3035 RMK A01 T10621091  RH  079%=      5-min Rain = 0
KEN1 100731Z 19004KT M06/M09 A3035 RMK A01 T10621092  RH  079%=      5-min Rain = 0
KEN1 100732Z 20004KT M06/M09 A3035 RMK A01 T10631093  RH  079%=      5-min Rain = 0
KEN1 100733Z 20004KT M06/M09 A3035 RMK A01 T10631093  RH  079%=      5-min Rain = 0
KEN1 100734Z 20003KT M06/M09 A3035 RMK A01 T10641093  RH  080%=      5-min Rain = 0
KEN1 100735Z 20003KT M07/M09 A3035 RMK A01 T10651093  RH  080%=      5-min Rain = 0
KEN1 100736Z 20003KT M07/M09 A3035 RMK A01 T10651093  RH  080%=      5-min Rain = 0
KEN1 100737Z 20003KT M07/M09 A3035 RMK A01 T10651093  RH  081%=      5-min Rain = 0
KEN1 100738Z 20004KT M07/M09 A3035 RMK A01 T10651093  RH  081%=      5-min Rain = 0
KEN1 100739Z 20003KT M07/M09 A3035 RMK A01 T10651092  RH  081%=      5-min Rain = 0
KEN1 100740Z 19003KT M07/M09 A3035 RMK A01 T10651092  RH  081%=      5-min Rain = 0
KEN1 100741Z 20003KT M07/M09 A3035 RMK A01 T10651092  RH  081%=      5-min Rain = 0
KEN1 100742Z 20003KT M07/M09 A3035 RMK A01 T10661093  RH  081%=      5-min Rain = 0
KEN1 100743Z 20004KT M07/M09 A3035 RMK A01 T10661094  RH  081%=      5-min Rain = 0
KEN1 100744Z 20004KT M07/M09 A3035 RMK A01 T10661093  RH  081%=      5-min Rain = 0
KEN1 100745Z 21004KT M07/M09 A3035 RMK A01 T10661093  RH  081%=      5-min Rain = 0
KEN1 100746Z 22004KT M07/M09 A3035 RMK A01 T10671094  RH  081%=      5-min Rain = 0
KEN1 100747Z 22004KT M07/M09 A3035 RMK A01 T10671094  RH  081%=      5-min Rain = 0
KEN1 100748Z 22004KT M07/M09 A3035 RMK A01 T10681094  RH  082%=      5-min Rain = 0
KEN1 100749Z 22004KT M07/M09 A3035 RMK A01 T10671094  RH  082%=      5-min Rain = 0
KEN1 100750Z 22004KT M07/M09 A3035 RMK A01 T10671093  RH  082%=      5-min Rain = 0
KEN1 100751Z 22004KT M07/M09 A3035 RMK A01 T10661092  RH  081%=      5-min Rain = 0
KEN1 100752Z 21004KT M07/M09 A3035 RMK A01 T10651092  RH  081%=      5-min Rain = 0
KEN1 100753Z 21004KT M07/M09 A3035 RMK A01 T10651092  RH  081%=      5-min Rain = 0
KEN1 100754Z 21005KT M06/M09 A3035 RMK A01 T10641092  RH  081%=      5-min Rain = 0
KEN1 100755Z 21005KT M06/M09 A3035 RMK A01 T10641092  RH  080%=      5-min Rain = 0
KEN1 100756Z 21005KT M06/M09 A3035 RMK A01 T10641092  RH  080%=      5-min Rain = 0
KEN1 100757Z 21005KT M06/M09 A3035 RMK A01 T10641093  RH  080%=      5-min Rain = 0
KEN1 100758Z 21004KT M06/M09 A3035 RMK A01 T10631092  RH  080%=      5-min Rain = 0
KEN1 100759Z 22005KT M06/M09 A3035 RMK A01 T10631092  RH  080%=      5-min Rain = 0
KEN1 100800Z 22005KT M06/M09 A3035 RMK A01 T10631093  RH  080%=      5-min Rain = 0
KEN1 100801Z 21005KT M06/M09 A3035 RMK A01 T10631092  RH  080%=      5-min Rain = 0
KEN1 100802Z 22005KT M06/M09 A3035 RMK A01 T10631093  RH  079%=      5-min Rain = 0
KEN1 100803Z 21004KT M06/M09 A3035 RMK A01 T10631093  RH  079%=      5-min Rain = 0
KEN1 100804Z 21004KT M06/M09 A3035 RMK A01 T10641093  RH  080%=      5-min Rain = 0
KEN1 100805Z 21004KT M06/M09 A3035 RMK A01 T10631092  RH  080%=      5-min Rain = 0
KEN1 100806Z 21005KT M06/M09 A3035 RMK A01 T10631092  RH  080%=      5-min Rain = 0
KEN1 100807Z 22004KT M06/M09 A3035 RMK A01 T10631092  RH  080%=      5-min Rain = 0
KEN1 100808Z 22004KT M06/M09 A3035 RMK A01 T10631092  RH  080%=      5-min Rain = 0
KEN1 100809Z 22004KT M06/M09 A3035 RMK A01 T10621091  RH  080%=      5-min Rain = 0
KEN1 100810Z 22004KT M06/M09 A3035 RMK A01 T10611091  RH  080%=      5-min Rain = 0
KEN1 100811Z 22004KT M06/M09 A3035 RMK A01 T10611092  RH  079%=      5-min Rain = 0
KEN1 100812Z 22004KT M06/M09 A3035 RMK A01 T10621092  RH  079%=      5-min Rain = 0
KEN1 100813Z 21004KT M06/M09 A3035 RMK A01 T10621092  RH  079%=      5-min Rain = 0
KEN1 100814Z 21004KT M06/M09 A3035 RMK A01 T10631094  RH  079%=      5-min Rain = 0
KEN1 100815Z 20004KT M06/M10 A3035 RMK A01 T10641095  RH  079%=      5-min Rain = 0
KEN1 100816Z 21004KT M07/M10 A3035 RMK A01 T10651095  RH  079%=      5-min Rain = 0
KEN1 100817Z 20003KT M07/M10 A3035 RMK A01 T10661095  RH  080%=      5-min Rain = 0
KEN1 100818Z 20003KT M07/M10 A3035 RMK A01 T10681097  RH  080%=      5-min Rain = 0
KEN1 100819Z 20003KT M07/M10 A3035 RMK A01 T10691097  RH  081%=      5-min Rain = 0
KEN1 100820Z 20003KT M07/M10 A3035 RMK A01 T10701096  RH  082%=      5-min Rain = 0
KEN1 100821Z 20003KT M07/M10 A3035 RMK A01 T10691095  RH  082%=      5-min Rain = 0
KEN1 100822Z 21003KT M07/M09 A3035 RMK A01 T10671093  RH  082%=      5-min Rain = 0
KEN1 100823Z 21003KT M07/M09 A3034 RMK A01 T10651092  RH  082%=      5-min Rain = 0
KEN1 100824Z 21002KT M06/M09 A3034 RMK A01 T10631091  RH  081%=      5-min Rain = 0
KEN1 100825Z 21002KT M06/M09 A3034 RMK A01 T10621091  RH  080%=      5-min Rain = 0
KEN1 100826Z 21002KT M06/M09 A3034 RMK A01 T10611091  RH  079%=      5-min Rain = 0
KEN1 100827Z 21002KT M06/M09 A3034 RMK A01 T10601092  RH  078%=      5-min Rain = 0
KEN1 100828Z 21002KT M06/M09 A3034 RMK A01 T10601092  RH  078%=      5-min Rain = 0
KEN1 100829Z 21002KT M06/M09 A3034 RMK A01 T10611093  RH  078%=      5-min Rain = 0
KEN1 100830Z 22002KT M06/M09 A3034 RMK A01 T10601092  RH  078%=      5-min Rain = 0
KEN1 100831Z 23003KT M06/M09 A3034 RMK A01 T10591092  RH  078%=      5-min Rain = 0
KEN1 100832Z 23003KT M06/M09 A3034 RMK A01 T10591092  RH  078%=      5-min Rain = 0
KEN1 100833Z 22003KT M06/M09 A3034 RMK A01 T10591092  RH  078%=      5-min Rain = 0
KEN1 100834Z 22003KT M06/M09 A3034 RMK A01 T10591092  RH  077%=      5-min Rain = 0
KEN1 100835Z 21003KT M06/M09 A3034 RMK A01 T10591092  RH  077%=      5-min Rain = 0
KEN1 100836Z 21003KT M06/M09 A3034 RMK A01 T10581092  RH  077%=      5-min Rain = 0
KEN1 100837Z 21004KT M06/M09 A3034 RMK A01 T10581091  RH  077%=      5-min Rain = 0
KEN1 100838Z 21004KT M06/M09 A3034 RMK A01 T10581092  RH  077%=      5-min Rain = 0
KEN1 100839Z 20004KT M06/M09 A3034 RMK A01 T10591093  RH  077%=      5-min Rain = 0
KEN1 100840Z 20004KT M06/M09 A3034 RMK A01 T10601094  RH  077%=      5-min Rain = 0
KEN1 100841Z 21004KT M06/M10 A3034 RMK A01 T10621096  RH  077%=      5-min Rain = 0
KEN1 100842Z 21003KT M06/M10 A3034 RMK A01 T10631096  RH  078%=      5-min Rain = 0
KEN1 100843Z 21003KT M06/M10 A3034 RMK A01 T10641095  RH  078%=      5-min Rain = 0
KEN1 100844Z 20003KT M06/M10 A3034 RMK A01 T10641095  RH  079%=      5-min Rain = 0
KEN1 100845Z 20003KT M06/M10 A3034 RMK A01 T10641095  RH  079%=      5-min Rain = 0
KEN1 100846Z 20003KT M06/M09 A3034 RMK A01 T10641094  RH  079%=      5-min Rain = 0
KEN1 100847Z 20004KT M06/M10 A3034 RMK A01 T10641095  RH  079%=      5-min Rain = 0
KEN1 100848Z 20004KT M07/M10 A3034 RMK A01 T10651096  RH  079%=      5-min Rain = 0
KEN1 100849Z 20004KT M07/M10 A3034 RMK A01 T10671097  RH  079%=      5-min Rain = 0
KEN1 100850Z 20004KT M07/M10 A3034 RMK A01 T10681097  RH  080%=      5-min Rain = 0
KEN1 100851Z 20004KT M07/M10 A3034 RMK A01 T10681096  RH  080%=      5-min Rain = 0
KEN1 100852Z 20005KT M07/M10 A3034 RMK A01 T10681096  RH  081%=      5-min Rain = 0
KEN1 100853Z 20004KT M07/M10 A3034 RMK A01 T10671095  RH  081%=      5-min Rain = 0
KEN1 100854Z 20004KT M07/M09 A3034 RMK A01 T10671094  RH  081%=      5-min Rain = 0
KEN1 100855Z 20004KT M07/M09 A3034 RMK A01 T10661094  RH  081%=      5-min Rain = 0
KEN1 100856Z 20004KT M07/M10 A3034 RMK A01 T10661095  RH  080%=      5-min Rain = 0
KEN1 100857Z 20004KT M07/M10 A3034 RMK A01 T10661095  RH  080%=      5-min Rain = 0
KEN1 100858Z 20004KT M07/M10 A3034 RMK A01 T10671096  RH  080%=      5-min Rain = 0
KEN1 100859Z 20004KT M07/M10 A3034 RMK A01 T10671096  RH  080%=      5-min Rain = 0
KEN1 100900Z 20005KT M07/M09 A3034 RMK A01 T10661094  RH  081%=      5-min Rain = 0
KEN1 100901Z 20005KT M07/M09 A3034 RMK A01 T10651094  RH  080%=      5-min Rain = 0
KEN1 100902Z 21005KT M07/M09 A3034 RMK A01 T10651094  RH  080%=      5-min Rain = 0
KEN1 100903Z 20005KT M06/M09 A3034 RMK A01 T10641094  RH  080%=      5-min Rain = 0
KEN1 100904Z 20005KT M06/M09 A3034 RMK A01 T10621092  RH  079%=      5-min Rain = 0
KEN1 100905Z 20005KT M06/M09 A3034 RMK A01 T10621093  RH  079%=      5-min Rain = 0
KEN1 100906Z 21005KT M06/M09 A3034 RMK A01 T10631094  RH  079%=      5-min Rain = 0
KEN1 100907Z 21005KT M06/M09 A3034 RMK A01 T10631094  RH  079%=      5-min Rain = 0
KEN1 100908Z 21005KT M06/M09 A3034 RMK A01 T10641094  RH  079%=      5-min Rain = 0
KEN1 100909Z 21005KT M06/M09 A3034 RMK A01 T10641093  RH  080%=      5-min Rain = 0
KEN1 100910Z 21005KT M06/M09 A3034 RMK A01 T10631093  RH  079%=      5-min Rain = 0
KEN1 100911Z 21005KT M06/M09 A3034 RMK A01 T10631093  RH  079%=      5-min Rain = 0
KEN1 100912Z 21005KT M06/M09 A3034 RMK A01 T10631094  RH  079%=      5-min Rain = 0
KEN1 100913Z 21005KT M06/M09 A3034 RMK A01 T10621093  RH  079%=      5-min Rain = 0
KEN1 100914Z 21005KT M06/M09 A3034 RMK A01 T10611092  RH  079%=      5-min Rain = 0
KEN1 100915Z 20005KT M06/M09 A3034 RMK A01 T10601092  RH  078%=      5-min Rain = 0
KEN1 100916Z 20005KT M06/M09 A3034 RMK A01 T10591092  RH  077%=      5-min Rain = 0
KEN1 100917Z 19005KT M06/M09 A3034 RMK A01 T10591092  RH  077%=      5-min Rain = 0
KEN1 100918Z 20006KT M06/M09 A3034 RMK A01 T10591093  RH  077%=      5-min Rain = 0
KEN1 100919Z 20005KT M06/M09 A3034 RMK A01 T10591093  RH  077%=      5-min Rain = 0
KEN1 100920Z 20006KT M06/M09 A3034 RMK A01 T10591092  RH  077%=      5-min Rain = 0
KEN1 100921Z 21005KT M06/M09 A3034 RMK A01 T10581092  RH  077%=      5-min Rain = 0
KEN1 100922Z 21005KT M06/M09 A3034 RMK A01 T10581092  RH  077%=      5-min Rain = 0
KEN1 100923Z 22005KT M06/M09 A3034 RMK A01 T10571092  RH  077%=      5-min Rain = 0
KEN1 100924Z 21005KT M06/M09 A3034 RMK A01 T10561091  RH  077%=      5-min Rain = 0
KEN1 100925Z 21005KT M06/M09 A3034 RMK A01 T10561091  RH  076%=      5-min Rain = 0
KEN1 100926Z 21005KT M06/M09 A3034 RMK A01 T10561091  RH  076%=      5-min Rain = 0
KEN1 100927Z 21005KT M06/M09 A3034 RMK A01 T10571091  RH  077%=      5-min Rain = 0
KEN1 100928Z 21006KT M06/M09 A3034 RMK A01 T10571091  RH  077%=      5-min Rain = 0
KEN1 100929Z 21006KT M06/M09 A3034 RMK A01 T10571091  RH  077%=      5-min Rain = 0
KEN1 100930Z 21006KT M06/M09 A3034 RMK A01 T10571091  RH  077%=      5-min Rain = 0
KEN1 100931Z 22006KT M06/M09 A3034 RMK A01 T10571092  RH  076%=      5-min Rain = 0
KEN1 100932Z 21006KT M06/M09 A3034 RMK A01 T10581093  RH  076%=      5-min Rain = 0
KEN1 100933Z 21005KT M06/M09 A3034 RMK A01 T10591093  RH  077%=      5-min Rain = 0
KEN1 100934Z 22005KT M06/M09 A3034 RMK A01 T10591092  RH  078%=      5-min Rain = 0
KEN1 100935Z 22005KT M06/M09 A3034 RMK A01 T10591091  RH  078%=      5-min Rain = 0
KEN1 100936Z 22005KT M06/M09 A3034 RMK A01 T10581090  RH  078%=      5-min Rain = 0
KEN1 100937Z 22005KT M06/M09 A3034 RMK A01 T10571090  RH  078%=      5-min Rain = 0
KEN1 100938Z 22005KT M06/M09 A3034 RMK A01 T10561089  RH  077%=      5-min Rain = 0
KEN1 100939Z 22005KT M06/M09 A3034 RMK A01 T10551089  RH  077%=      5-min Rain = 0
KEN1 100940Z 22005KT M06/M09 A3034 RMK A01 T10551088  RH  077%=      5-min Rain = 0
KEN1 100941Z 22004KT M05/M09 A3034 RMK A01 T10531088  RH  077%=      5-min Rain = 0
KEN1 100942Z 22005KT M05/M09 A3034 RMK A01 T10531088  RH  076%=      5-min Rain = 0
KEN1 100943Z 23004KT M06/M09 A3034 RMK A01 T10551089  RH  076%=      5-min Rain = 0
KEN1 100944Z 22004KT M06/M09 A3034 RMK A01 T10551089  RH  077%=      5-min Rain = 0
KEN1 100945Z 22004KT M05/M09 A3034 RMK A01 T10541088  RH  077%=      5-min Rain = 0
KEN1 100946Z 22004KT M05/M09 A3034 RMK A01 T10541088  RH  077%=      5-min Rain = 0
KEN1 100947Z 21004KT M06/M09 A3034 RMK A01 T10551088  RH  077%=      5-min Rain = 0
KEN1 100948Z 22005KT M06/M09 A3034 RMK A01 T10551088  RH  077%=      5-min Rain = 0
KEN1 100949Z 21005KT M05/M09 A3034 RMK A01 T10541088  RH  077%=      5-min Rain = 0
KEN1 100950Z 21005KT M06/M09 A3034 RMK A01 T10551089  RH  077%=      5-min Rain = 0
KEN1 100951Z 21005KT M06/M09 A3034 RMK A01 T10561089  RH  077%=      5-min Rain = 0
KEN1 100952Z 21004KT M06/M09 A3034 RMK A01 T10561089  RH  077%=      5-min Rain = 0
KEN1 100953Z 22004KT M06/M09 A3034 RMK A01 T10561089  RH  078%=      5-min Rain = 0
KEN1 100954Z 22005KT M06/M09 A3034 RMK A01 T10561089  RH  078%=      5-min Rain = 0
KEN1 100955Z 22005KT M06/M09 A3034 RMK A01 T10551089  RH  077%=      5-min Rain = 0
KEN1 100956Z 21005KT M06/M09 A3034 RMK A01 T10551089  RH  077%=      5-min Rain = 0
KEN1 100957Z 22005KT M06/M09 A3034 RMK A01 T10561090  RH  077%=      5-min Rain = 0
KEN1 100958Z 22005KT M06/M09 A3034 RMK A01 T10571090  RH  077%=      5-min Rain = 0
KEN1 100959Z 22005KT M06/M09 A3034 RMK A01 T10581090  RH  078%=      5-min Rain = 0
KEN1 101000Z 22005KT M06/M09 A3034 RMK A01 T10581090  RH  078%=      5-min Rain = 0
KEN1 101001Z 22005KT M06/M09 A3034 RMK A01 T10581090  RH  078%=      5-min Rain = 0
KEN1 101002Z 22004KT M06/M09 A3034 RMK A01 T10571090  RH  078%=      5-min Rain = 0
KEN1 101003Z 22004KT M06/M09 A3034 RMK A01 T10571090  RH  078%=      5-min Rain = 0
KEN1 101004Z 22004KT M06/M09 A3034 RMK A01 T10571090  RH  078%=      5-min Rain = 0
KEN1 101005Z 23004KT M06/M09 A3034 RMK A01 T10571090  RH  078%=      5-min Rain = 0
KEN1 101006Z 22004KT M06/M09 A3034 RMK A01 T10571090  RH  078%=      5-min Rain = 0
KEN1 101007Z 23004KT M06/M09 A3034 RMK A01 T10561089  RH  077%=      5-min Rain = 0
KEN1 101008Z 23004KT M06/M09 A3034 RMK A01 T10551089  RH  077%=      5-min Rain = 0
KEN1 101009Z 23004KT M06/M09 A3034 RMK A01 T10551089  RH  077%=      5-min Rain = 0
KEN1 101010Z 23004KT M06/M09 A3034 RMK A01 T10551090  RH  077%=      5-min Rain = 0
KEN1 101011Z 23004KT M05/M09 A3034 RMK A01 T10541089  RH  077%=      5-min Rain = 0
KEN1 101012Z 23004KT M05/M09 A3034 RMK A01 T10541089  RH  076%=      5-min Rain = 0
KEN1 101013Z 22004KT M05/M09 A3034 RMK A01 T10541089  RH  076%=      5-min Rain = 0
KEN1 101014Z 22004KT M05/M09 A3034 RMK A01 T10541090  RH  076%=      5-min Rain = 0
KEN1 101015Z 23004KT M05/M09 A3034 RMK A01 T10541090  RH  076%=      5-min Rain = 0
KEN1 101016Z 22004KT M05/M09 A3034 RMK A01 T10541089  RH  076%=      5-min Rain = 0
KEN1 101017Z 22004KT M05/M09 A3034 RMK A01 T10541090  RH  076%=      5-min Rain = 0
KEN1 101018Z 22004KT M05/M09 A3033 RMK A01 T10541091  RH  076%=      5-min Rain = 0
KEN1 101019Z 22003KT M06/M09 A3033 RMK A01 T10551091  RH  075%=      5-min Rain = 0
KEN1 101020Z 22003KT M06/M09 A3033 RMK A01 T10551092  RH  076%=      5-min Rain = 0
KEN1 101021Z 23003KT M06/M09 A3033 RMK A01 T10551092  RH  076%=      5-min Rain = 0
KEN1 101022Z 22003KT M06/M09 A3033 RMK A01 T10551092  RH  075%=      5-min Rain = 0
KEN1 101023Z 23004KT M06/M09 A3033 RMK A01 T10551092  RH  075%=      5-min Rain = 0
KEN1 101024Z 22003KT M05/M09 A3033 RMK A01 T10541092  RH  075%=      5-min Rain = 0
KEN1 101025Z 22004KT M05/M09 A3033 RMK A01 T10541093  RH  074%=      5-min Rain = 0
KEN1 101026Z 23004KT M06/M09 A3033 RMK A01 T10551093  RH  074%=      5-min Rain = 0
KEN1 101027Z 23004KT M06/M10 A3033 RMK A01 T10561095  RH  074%=      5-min Rain = 0
KEN1 101028Z 23004KT M06/M10 A3033 RMK A01 T10571095  RH  075%=      5-min Rain = 0
KEN1 101029Z 23004KT M06/M09 A3033 RMK A01 T10571094  RH  075%=      5-min Rain = 0
KEN1 101030Z 23004KT M06/M09 A3033 RMK A01 T10581094  RH  076%=      5-min Rain = 0
KEN1 101031Z 23004KT M06/M09 A3033 RMK A01 T10571092  RH  076%=      5-min Rain = 0
KEN1 101032Z 22004KT M06/M09 A3033 RMK A01 T10561091  RH  076%=      5-min Rain = 0
KEN1 101033Z 22004KT M06/M09 A3033 RMK A01 T10551091  RH  076%=      5-min Rain = 0
KEN1 101034Z 22004KT M05/M09 A3033 RMK A01 T10541090  RH  076%=      5-min Rain = 0
KEN1 101035Z 22004KT M05/M09 A3033 RMK A01 T10531089  RH  076%=      5-min Rain = 0
KEN1 101036Z 22004KT M05/M09 A3033 RMK A01 T10521090  RH  075%=      5-min Rain = 0
KEN1 101037Z 21004KT M05/M09 A3033 RMK A01 T10521091  RH  074%=      5-min Rain = 0
KEN1 101038Z 22004KT M06/M09 A3033 RMK A01 T10551094  RH  074%=      5-min Rain = 0
KEN1 101039Z 22004KT M06/M10 A3033 RMK A01 T10571095  RH  075%=      5-min Rain = 0
KEN1 101040Z 22004KT M06/M09 A3033 RMK A01 T10571094  RH  075%=      5-min Rain = 0
KEN1 101041Z 22004KT M06/M09 A3033 RMK A01 T10571093  RH  076%=      5-min Rain = 0
KEN1 101042Z 22004KT M06/M09 A3033 RMK A01 T10581094  RH  076%=      5-min Rain = 0
KEN1 101043Z 22004KT M06/M10 A3033 RMK A01 T10591095  RH  076%=      5-min Rain = 0
KEN1 101044Z 22005KT M06/M09 A3033 RMK A01 T10591094  RH  076%=      5-min Rain = 0
KEN1 101045Z 22005KT M06/M09 A3033 RMK A01 T10581093  RH  076%=      5-min Rain = 0
KEN1 101046Z 22005KT M06/M09 A3033 RMK A01 T10581093  RH  076%=      5-min Rain = 0
KEN1 101047Z 22005KT M06/M09 A3033 RMK A01 T10581094  RH  076%=      5-min Rain = 0
KEN1 101048Z 22005KT M06/M10 A3033 RMK A01 T10581095  RH  075%=      5-min Rain = 0
KEN1 101049Z 21004KT M06/M10 A3033 RMK A01 T10591095  RH  076%=      5-min Rain = 0
KEN1 101050Z 21004KT M06/M09 A3033 RMK A01 T10591094  RH  076%=      5-min Rain = 0
KEN1 101051Z 21004KT M06/M10 A3033 RMK A01 T10591095  RH  076%=      5-min Rain = 0
KEN1 101052Z 21004KT M06/M10 A3033 RMK A01 T10601096  RH  076%=      5-min Rain = 0
KEN1 101053Z 21004KT M06/M10 A3033 RMK A01 T10621097  RH  076%=      5-min Rain = 0
KEN1 101054Z 21004KT M06/M10 A3033 RMK A01 T10631097  RH  077%=      5-min Rain = 0
KEN1 101055Z 21004KT M06/M10 A3033 RMK A01 T10631097  RH  077%=      5-min Rain = 0
KEN1 101056Z 21004KT M06/M10 A3033 RMK A01 T10641097  RH  077%=      5-min Rain = 0
KEN1 101057Z 21004KT M07/M10 A3033 RMK A01 T10661099  RH  077%=      5-min Rain = 0
KEN1 101058Z 22004KT M07/M10 A3033 RMK A01 T10671099  RH  078%=      5-min Rain = 0
KEN1 101059Z 22004KT M07/M10 A3033 RMK A01 T10671097  RH  079%=      5-min Rain = 0
KEN1 101100Z 21004KT M07/M10 A3033 RMK A01 T10671097  RH  080%=      5-min Rain = 0
KEN1 101101Z 21004KT M07/M10 A3033 RMK A01 T10671095  RH  080%=      5-min Rain = 0
KEN1 101102Z 21004KT M07/M09 A3033 RMK A01 T10661094  RH  080%=      5-min Rain = 0
KEN1 101103Z 21004KT M07/M10 A3032 RMK A01 T10661095  RH  080%=      5-min Rain = 0
KEN1 101104Z 21004KT M07/M10 A3032 RMK A01 T10661096  RH  079%=      5-min Rain = 0
KEN1 101105Z 21004KT M07/M10 A3032 RMK A01 T10661095  RH  079%=      5-min Rain = 0
KEN1 101106Z 21004KT M07/M10 A3032 RMK A01 T10661096  RH  079%=      5-min Rain = 0
KEN1 101107Z 21005KT M07/M10 A3032 RMK A01 T10671097  RH  079%=      5-min Rain = 0
KEN1 101108Z 21004KT M07/M10 A3032 RMK A01 T10691098  RH  079%=      5-min Rain = 0
KEN1 101109Z 22005KT M07/M10 A3032 RMK A01 T10691097  RH  080%=      5-min Rain = 0
KEN1 101110Z 21004KT M07/M10 A3032 RMK A01 T10691096  RH  081%=      5-min Rain = 0
KEN1 101111Z 21004KT M07/M10 A3032 RMK A01 T10691096  RH  081%=      5-min Rain = 0
KEN1 101112Z 21004KT M07/M10 A3032 RMK A01 T10691096  RH  081%=      5-min Rain = 0
KEN1 101113Z 21004KT M07/M10 A3032 RMK A01 T10681095  RH  081%=      5-min Rain = 0
KEN1 101114Z 21004KT M07/M10 A3032 RMK A01 T10681095  RH  082%=      5-min Rain = 0
KEN1 101115Z 20004KT M07/M09 A3032 RMK A01 T10681094  RH  082%=      5-min Rain = 0
KEN1 101116Z 20004KT M07/M09 A3032 RMK A01 T10681094  RH  081%=      5-min Rain = 0
KEN1 101117Z 20004KT M07/M09 A3032 RMK A01 T10671094  RH  081%=      5-min Rain = 0
KEN1 101118Z 20004KT M07/M09 A3032 RMK A01 T10671094  RH  081%=      5-min Rain = 0
KEN1 101119Z 20005KT M07/M10 A3032 RMK A01 T10681095  RH  081%=      5-min Rain = 0
KEN1 101120Z 19005KT M07/M10 A3032 RMK A01 T10691096  RH  081%=      5-min Rain = 0
KEN1 101121Z 19005KT M07/M10 A3032 RMK A01 T10691095  RH  081%=      5-min Rain = 0
KEN1 101122Z 19005KT M07/M10 A3032 RMK A01 T10701095  RH  082%=      5-min Rain = 0
KEN1 101123Z 18005KT M07/M09 A3032 RMK A01 T10701094  RH  083%=      5-min Rain = 0
KEN1 101124Z 19005KT M07/M09 A3032 RMK A01 T10701094  RH  083%=      5-min Rain = 0
KEN1 101125Z 19004KT M07/M09 A3032 RMK A01 T10691093  RH  083%=      5-min Rain = 0
KEN1 101126Z 20004KT M07/M09 A3032 RMK A01 T10691093  RH  083%=      5-min Rain = 0
KEN1 101127Z 20004KT M07/M09 A3032 RMK A01 T10691093  RH  083%=      5-min Rain = 0
KEN1 101128Z 20004KT M07/M09 A3032 RMK A01 T10701094  RH  083%=      5-min Rain = 0
KEN1 101129Z 20004KT M07/M09 A3032 RMK A01 T10701094  RH  083%=      5-min Rain = 0
KEN1 101130Z 21004KT M07/M09 A3032 RMK A01 T10711094  RH  084%=      5-min Rain = 0
KEN1 101131Z 20004KT M07/M09 A3032 RMK A01 T10701093  RH  084%=      5-min Rain = 0
KEN1 101132Z 19004KT M07/M09 A3032 RMK A01 T10701093  RH  084%=      5-min Rain = 0
KEN1 101133Z 20004KT M07/M09 A3032 RMK A01 T10711093  RH  084%=      5-min Rain = 0
KEN1 101134Z 20005KT M07/M09 A3032 RMK A01 T10701092  RH  085%=      5-min Rain = 0
KEN1 101135Z 20005KT M07/M09 A3032 RMK A01 T10691090  RH  086%=      5-min Rain = 0
KEN1 101136Z 20005KT M07/M09 A3032 RMK A01 T10681088  RH  086%=      5-min Rain = 0
KEN1 101137Z 20005KT M07/M09 A3032 RMK A01 T10671087  RH  086%=      5-min Rain = 0
KEN1 101138Z 20005KT M07/M09 A3032 RMK A01 T10671086  RH  086%=      5-min Rain = 0
KEN1 101139Z 21005KT M07/M09 A3032 RMK A01 T10661086  RH  086%=      5-min Rain = 0
KEN1 101140Z 20005KT M07/M09 A3032 RMK A01 T10661087  RH  085%=      5-min Rain = 0
KEN1 101141Z 20004KT M07/M09 A3032 RMK A01 T10661087  RH  085%=      5-min Rain = 0
KEN1 101142Z 20004KT M07/M09 A3032 RMK A01 T10661087  RH  085%=      5-min Rain = 0
KEN1 101143Z 20004KT M07/M09 A3032 RMK A01 T10661088  RH  085%=      5-min Rain = 0
KEN1 101144Z 20004KT M07/M09 A3032 RMK A01 T10661088  RH  085%=      5-min Rain = 0
KEN1 101145Z 20004KT M07/M09 A3032 RMK A01 T10651087  RH  085%=      5-min Rain = 0
KEN1 101146Z 20004KT M06/M09 A3032 RMK A01 T10641086  RH  085%=      5-min Rain = 0
KEN1 101147Z 21004KT M06/M09 A3032 RMK A01 T10641085  RH  085%=      5-min Rain = 0
KEN1 101148Z 21003KT M06/M08 A3032 RMK A01 T10621084  RH  085%=      5-min Rain = 0
KEN1 101149Z 21003KT M06/M08 A3032 RMK A01 T10621084  RH  084%=      5-min Rain = 0
KEN1 101150Z 21003KT M06/M09 A3032 RMK A01 T10621086  RH  083%=      5-min Rain = 0
KEN1 101151Z 21003KT M06/M09 A3032 RMK A01 T10621088  RH  082%=      5-min Rain = 0
KEN1 101152Z 20003KT M06/M09 A3032 RMK A01 T10641089  RH  082%=      5-min Rain = 0
KEN1 101153Z 20003KT M07/M09 A3032 RMK A01 T10651090  RH  082%=      5-min Rain = 0
KEN1 101154Z 21003KT M07/M09 A3032 RMK A01 T10651090  RH  083%=      5-min Rain = 0
KEN1 101155Z 22003KT M07/M09 A3032 RMK A01 T10661091  RH  083%=      5-min Rain = 0
KEN1 101156Z 22003KT M07/M09 A3032 RMK A01 T10671092  RH  083%=      5-min Rain = 0
KEN1 101157Z 22003KT M07/M09 A3032 RMK A01 T10681092  RH  083%=      5-min Rain = 0
KEN1 101158Z 22003KT M07/M09 A3032 RMK A01 T10691092  RH  083%=      5-min Rain = 0
KEN1 101159Z 23002KT M07/M09 A3032 RMK A01 T10681091  RH  084%=      5-min Rain = 0
KEN1 101200Z 23002KT M07/M09 A3032 RMK A01 T10681090  RH  084%=      5-min Rain = 0
KEN1 101201Z 24002KT M07/M09 A3032 RMK A01 T10661087  RH  085%=      5-min Rain = 0
KEN1 101202Z 24002KT M06/M09 A3032 RMK A01 T10631085  RH  085%=      5-min Rain = 0
KEN1 101203Z 23002KT M06/M08 A3032 RMK A01 T10621084  RH  084%=      5-min Rain = 0
KEN1 101204Z 23003KT M06/M08 A3032 RMK A01 T10611084  RH  083%=      5-min Rain = 0
KEN1 101205Z 22003KT M06/M09 A3032 RMK A01 T10601085  RH  083%=      5-min Rain = 0
KEN1 101206Z 22003KT M06/M09 A3032 RMK A01 T10601086  RH  082%=      5-min Rain = 0
KEN1 101207Z 22003KT M06/M09 A3032 RMK A01 T10601086  RH  082%=      5-min Rain = 0
KEN1 101208Z 22002KT M06/M09 A3032 RMK A01 T10601086  RH  082%=      5-min Rain = 0
KEN1 101209Z 22003KT M06/M09 A3033 RMK A01 T10601085  RH  082%=      5-min Rain = 0
KEN1 101210Z 22002KT M06/M09 A3033 RMK A01 T10601086  RH  082%=      5-min Rain = 0
KEN1 101211Z 23002KT M06/M09 A3033 RMK A01 T10601086  RH  082%=      5-min Rain = 0
KEN1 101212Z 23003KT M06/M09 A3033 RMK A01 T10601087  RH  081%=      5-min Rain = 0
KEN1 101213Z 23003KT M06/M09 A3033 RMK A01 T10601087  RH  081%=      5-min Rain = 0
KEN1 101214Z 22003KT M06/M09 A3033 RMK A01 T10611087  RH  082%=      5-min Rain = 0
KEN1 101215Z 23003KT M06/M09 A3033 RMK A01 T10611088  RH  081%=      5-min Rain = 0
KEN1 101216Z 23003KT M06/M09 A3033 RMK A01 T10611088  RH  081%=      5-min Rain = 0
KEN1 101217Z 22003KT M06/M09 A3033 RMK A01 T10631089  RH  081%=      5-min Rain = 0
KEN1 101218Z 20003KT M06/M09 A3033 RMK A01 T10641090  RH  081%=      5-min Rain = 0
KEN1 101219Z 21003KT M07/M09 A3033 RMK A01 T10651092  RH  081%=      5-min Rain = 0
KEN1 101220Z 22002KT M07/M09 A3033 RMK A01 T10661093  RH  081%=      5-min Rain = 0
KEN1 101221Z 22002KT M07/M10 A3033 RMK A01 T10681095  RH  081%=      5-min Rain = 0
KEN1 101222Z 21002KT M07/M10 A3033 RMK A01 T10701097  RH  081%=      5-min Rain = 0
KEN1 101223Z 22002KT M07/M10 A3033 RMK A01 T10701096  RH  082%=      5-min Rain = 0
KEN1 101224Z 21003KT M07/M10 A3033 RMK A01 T10711095  RH  083%=      5-min Rain = 0
KEN1 101225Z 21003KT M07/M10 A3033 RMK A01 T10711095  RH  083%=      5-min Rain = 0
KEN1 101226Z 22003KT M07/M10 A3033 RMK A01 T10721095  RH  084%=      5-min Rain = 0
KEN1 101227Z 22003KT M07/M09 A3033 RMK A01 T10721094  RH  084%=      5-min Rain = 0
KEN1 101228Z 22003KT M07/M09 A3033 RMK A01 T10721094  RH  084%=      5-min Rain = 0
KEN1 101229Z 22003KT M07/M10 A3033 RMK A01 T10731095  RH  084%=      5-min Rain = 0
KEN1 101230Z 22003KT M07/M09 A3033 RMK A01 T10731094  RH  085%=      5-min Rain = 0
KEN1 101231Z 22003KT M07/M09 A3033 RMK A01 T10731094  RH  085%=      5-min Rain = 0
KEN1 101232Z 23003KT M07/M10 A3033 RMK A01 T10731095  RH  085%=      5-min Rain = 0
KEN1 101233Z 22003KT M07/M10 A3033 RMK A01 T10741095  RH  085%=      5-min Rain = 0
KEN1 101234Z 23003KT M07/M10 A3033 RMK A01 T10741095  RH  085%=      5-min Rain = 0
KEN1 101235Z 23003KT M07/M10 A3033 RMK A01 T10741095  RH  085%=      5-min Rain = 0
KEN1 101236Z 22003KT M07/M10 A3033 RMK A01 T10741096  RH  085%=      5-min Rain = 0
KEN1 101237Z 22003KT M07/M10 A3033 RMK A01 T10741096  RH  085%=      5-min Rain = 0
KEN1 101238Z 22003KT M08/M10 A3033 RMK A01 T10751096  RH  085%=      5-min Rain = 0
KEN1 101239Z 22003KT M08/M10 A3033 RMK A01 T10751096  RH  085%=      5-min Rain = 0
KEN1 101240Z 21003KT M08/M10 A3033 RMK A01 T10761097  RH  085%=      5-min Rain = 0
KEN1 101241Z 21002KT M08/M10 A3033 RMK A01 T10761097  RH  085%=      5-min Rain = 0
KEN1 101242Z 21003KT M08/M10 A3033 RMK A01 T10761097  RH  085%=      5-min Rain = 0
KEN1 101243Z 21003KT M08/M10 A3033 RMK A01 T10761096  RH  085%=      5-min Rain = 0
KEN1 101244Z 21003KT M08/M10 A3033 RMK A01 T10761096  RH  086%=      5-min Rain = 0
KEN1 101245Z 21002KT M08/M09 A3033 RMK A01 T10751094  RH  086%=      5-min Rain = 0
KEN1 101246Z 21002KT M07/M09 A3033 RMK A01 T10731093  RH  086%=      5-min Rain = 0
KEN1 101247Z 22002KT M07/M09 A3033 RMK A01 T10721091  RH  086%=      5-min Rain = 0
KEN1 101248Z 21002KT M07/M09 A3033 RMK A01 T10711091  RH  085%=      5-min Rain = 0
KEN1 101249Z 21002KT M07/M09 A3033 RMK A01 T10701091  RH  085%=      5-min Rain = 0
KEN1 101250Z 21002KT M07/M09 A3033 RMK A01 T10691090  RH  085%=      5-min Rain = 0
KEN1 101251Z 20002KT M07/M09 A3033 RMK A01 T10681089  RH  085%=      5-min Rain = 0
KEN1 101252Z 20003KT M07/M09 A3033 RMK A01 T10671090  RH  084%=      5-min Rain = 0
KEN1 101253Z 20003KT M07/M09 A3033 RMK A01 T10671090  RH  084%=      5-min Rain = 0
KEN1 101254Z 20003KT M07/M09 A3033 RMK A01 T10671090  RH  084%=      5-min Rain = 0
KEN1 101255Z 20003KT M07/M09 A3033 RMK A01 T10671090  RH  084%=      5-min Rain = 0
KEN1 101256Z 20003KT M07/M09 A3033 RMK A01 T10661089  RH  084%=      5-min Rain = 0
KEN1 101257Z 20003KT M07/M09 A3033 RMK A01 T10651087  RH  084%=      5-min Rain = 0
KEN1 101258Z 21003KT M06/M09 A3033 RMK A01 T10641087  RH  084%=      5-min Rain = 0
KEN1 101259Z 20003KT M06/M09 A3033 RMK A01 T10631087  RH  083%=      5-min Rain = 0
KEN1 101300Z 20003KT M06/M09 A3033 RMK A01 T10631087  RH  083%=      5-min Rain = 0
KEN1 101301Z 20003KT M06/M09 A3033 RMK A01 T10621087  RH  083%=      5-min Rain = 0
KEN1 101302Z 20003KT M06/M09 A3033 RMK A01 T10631090  RH  082%=      5-min Rain = 0
KEN1 101303Z 19003KT M07/M09 A3034 RMK A01 T10661093  RH  081%=      5-min Rain = 0
KEN1 101304Z 19003KT M07/M09 A3034 RMK A01 T10681094  RH  082%=      5-min Rain = 0
KEN1 101305Z 19003KT M07/M09 A3034 RMK A01 T10691094  RH  082%=      5-min Rain = 0
KEN1 101306Z 18003KT M07/M09 A3034 RMK A01 T10701094  RH  083%=      5-min Rain = 0
KEN1 101307Z 18004KT M07/M10 A3034 RMK A01 T10711095  RH  083%=      5-min Rain = 0
KEN1 101308Z 18004KT M07/M10 A3034 RMK A01 T10721095  RH  084%=      5-min Rain = 0
KEN1 101309Z 18004KT M07/M10 A3034 RMK A01 T10741097  RH  084%=      5-min Rain = 0
KEN1 101310Z 18004KT M08/M10 A3034 RMK A01 T10751098  RH  084%=      5-min Rain = 0
KEN1 101311Z 18004KT M08/M10 A3034 RMK A01 T10771100  RH  084%=      5-min Rain = 0
KEN1 101312Z 19005KT M08/M10 A3034 RMK A01 T10781100  RH  084%=      5-min Rain = 0
KEN1 101313Z 19004KT M08/M10 A3034 RMK A01 T10791100  RH  085%=      5-min Rain = 0
KEN1 101314Z 19004KT M08/M10 A3034 RMK A01 T10791099  RH  086%=      5-min Rain = 0
KEN1 101315Z 19004KT M08/M10 A3034 RMK A01 T10791099  RH  086%=      5-min Rain = 0
KEN1 101316Z 19004KT M08/M10 A3034 RMK A01 T10801099  RH  086%=      5-min Rain = 0
KEN1 101317Z 19004KT M08/M10 A3034 RMK A01 T10801098  RH  087%=      5-min Rain = 0
KEN1 101318Z 20004KT M08/M10 A3034 RMK A01 T10801098  RH  087%=      5-min Rain = 0
KEN1 101319Z 20004KT M08/M10 A3034 RMK A01 T10791097  RH  087%=      5-min Rain = 0
KEN1 101320Z 20004KT M08/M10 A3034 RMK A01 T10781095  RH  087%=      5-min Rain = 0
KEN1 101321Z 21004KT M08/M10 A3034 RMK A01 T10771095  RH  087%=      5-min Rain = 0
KEN1 101322Z 21004KT M08/M09 A3034 RMK A01 T10761093  RH  087%=      5-min Rain = 0
KEN1 101323Z 22004KT M07/M09 A3034 RMK A01 T10731090  RH  088%=      5-min Rain = 0
KEN1 101324Z 22004KT M07/M09 A3034 RMK A01 T10701088  RH  087%=      5-min Rain = 0
KEN1 101325Z 21004KT M07/M09 A3034 RMK A01 T10701089  RH  086%=      5-min Rain = 0
KEN1 101326Z 22004KT M07/M09 A3034 RMK A01 T10701090  RH  085%=      5-min Rain = 0
KEN1 101327Z 22004KT M07/M09 A3034 RMK A01 T10691090  RH  085%=      5-min Rain = 0
KEN1 101328Z 22004KT M07/M09 A3034 RMK A01 T10691090  RH  085%=      5-min Rain = 0
KEN1 101329Z 22004KT M07/M09 A3034 RMK A01 T10691091  RH  085%=      5-min Rain = 0
KEN1 101330Z 22004KT M07/M09 A3034 RMK A01 T10691090  RH  085%=      5-min Rain = 0
KEN1 101331Z 21004KT M07/M09 A3034 RMK A01 T10691090  RH  085%=      5-min Rain = 0
KEN1 101332Z 21004KT M07/M09 A3034 RMK A01 T10691090  RH  085%=      5-min Rain = 0
KEN1 101333Z 22004KT M07/M09 A3034 RMK A01 T10701091  RH  085%=      5-min Rain = 0
KEN1 101334Z 22003KT M07/M09 A3034 RMK A01 T10701091  RH  085%=      5-min Rain = 0
KEN1 101335Z 22003KT M07/M09 A3034 RMK A01 T10711092  RH  085%=      5-min Rain = 0
KEN1 101336Z 23003KT M07/M09 A3034 RMK A01 T10711091  RH  085%=      5-min Rain = 0
KEN1 101337Z 22004KT M07/M09 A3034 RMK A01 T10711092  RH  085%=      5-min Rain = 0
KEN1 101338Z 22004KT M07/M09 A3034 RMK A01 T10721092  RH  085%=      5-min Rain = 0
KEN1 101339Z 22005KT M07/M09 A3034 RMK A01 T10721093  RH  085%=      5-min Rain = 0
KEN1 101340Z 21005KT M07/M09 A3034 RMK A01 T10731093  RH  086%=      5-min Rain = 0
KEN1 101341Z 21005KT M07/M09 A3034 RMK A01 T10731093  RH  086%=      5-min Rain = 0
KEN1 101342Z 20005KT M07/M09 A3034 RMK A01 T10731093  RH  086%=      5-min Rain = 0
KEN1 101343Z 20005KT M07/M09 A3034 RMK A01 T10731093  RH  086%=      5-min Rain = 0
KEN1 101344Z 20005KT M07/M09 A3034 RMK A01 T10731093  RH  086%=      5-min Rain = 0
KEN1 101345Z 19005KT M07/M09 A3034 RMK A01 T10731092  RH  086%=      5-min Rain = 0
KEN1 101346Z 19005KT M07/M09 A3034 RMK A01 T10731092  RH  086%=      5-min Rain = 0
KEN1 101347Z 20005KT M07/M09 A3034 RMK A01 T10721092  RH  086%=      5-min Rain = 0
KEN1 101348Z 19005KT M07/M09 A3034 RMK A01 T10721092  RH  086%=      5-min Rain = 0
KEN1 101349Z 19005KT M07/M09 A3034 RMK A01 T10721091  RH  086%=      5-min Rain = 0
KEN1 101350Z 20005KT M07/M09 A3034 RMK A01 T10721092  RH  086%=      5-min Rain = 0
KEN1 101351Z 20005KT M07/M09 A3034 RMK A01 T10721092  RH  086%=      5-min Rain = 0
KEN1 101352Z 19005KT M07/M09 A3034 RMK A01 T10721092  RH  086%=      5-min Rain = 0
KEN1 101353Z 20005KT M07/M09 A3034 RMK A01 T10721092  RH  086%=      5-min Rain = 0
KEN1 101354Z 20005KT M07/M09 A3034 RMK A01 T10721092  RH  086%=      5-min Rain = 0
KEN1 101355Z 20005KT M07/M09 A3034 RMK A01 T10721092  RH  086%=      5-min Rain = 0
KEN1 101356Z 20005KT M07/M09 A3034 RMK A01 T10721092  RH  086%=      5-min Rain = 0
KEN1 101357Z 21006KT M07/M09 A3034 RMK A01 T10721092  RH  086%=      5-min Rain = 0
KEN1 101358Z 21006KT M07/M09 A3034 RMK A01 T10721092  RH  086%=      5-min Rain = 0
KEN1 101359Z 21006KT M07/M09 A3034 RMK A01 T10721091  RH  086%=      5-min Rain = 0
KEN1 101400Z 20006KT M07/M09 A3034 RMK A01 T10711090  RH  087%=      5-min Rain = 0
KEN1 101401Z 21007KT M07/M09 A3034 RMK A01 T10701088  RH  087%=      5-min Rain = 0
KEN1 101402Z 21006KT M07/M09 A3034 RMK A01 T10701087  RH  087%=      5-min Rain = 0
KEN1 101403Z 21006KT M07/M09 A3034 RMK A01 T10691087  RH  087%=      5-min Rain = 0
KEN1 101404Z 21006KT M07/M09 A3034 RMK A01 T10691086  RH  087%=      5-min Rain = 0
KEN1 101405Z 21006KT M07/M09 A3034 RMK A01 T10691086  RH  087%=      5-min Rain = 0
KEN1 101406Z 21005KT M07/M09 A3034 RMK A01 T10681086  RH  087%=      5-min Rain = 0
KEN1 101407Z 21005KT M07/M09 A3034 RMK A01 T10691087  RH  087%=      5-min Rain = 0
KEN1 101408Z 22005KT M07/M09 A3034 RMK A01 T10691088  RH  087%=      5-min Rain = 0
KEN1 101409Z 22005KT M07/M09 A3034 RMK A01 T10691088  RH  087%=      5-min Rain = 0
KEN1 101410Z 22004KT M07/M09 A3034 RMK A01 T10691088  RH  087%=      5-min Rain = 0
KEN1 101411Z 23005KT M07/M09 A3034 RMK A01 T10691087  RH  087%=      5-min Rain = 0
KEN1 101412Z 23005KT M07/M09 A3034 RMK A01 T10681086  RH  087%=      5-min Rain = 0
KEN1 101413Z 23004KT M07/M09 A3034 RMK A01 T10681086  RH  087%=      5-min Rain = 0
KEN1 101414Z 23004KT M07/M09 A3034 RMK A01 T10671085  RH  087%=      5-min Rain = 0
KEN1 101415Z 23004KT M07/M09 A3034 RMK A01 T10661085  RH  087%=      5-min Rain = 0
KEN1 101416Z 23004KT M07/M08 A3034 RMK A01 T10651083  RH  087%=      5-min Rain = 0
KEN1 101417Z 24003KT M06/M08 A3034 RMK A01 T10631082  RH  087%=      5-min Rain = 0
KEN1 101418Z 24003KT M06/M08 A3034 RMK A01 T10611080  RH  086%=      5-min Rain = 0
KEN1 101419Z 24003KT M06/M08 A3034 RMK A01 T10601080  RH  086%=      5-min Rain = 0
KEN1 101420Z 24003KT M06/M08 A3034 RMK A01 T10571079  RH  085%=      5-min Rain = 0
KEN1 101421Z 24003KT M06/M08 A3035 RMK A01 T10551078  RH  084%=      5-min Rain = 0
KEN1 101422Z 25003KT M05/M08 A3035 RMK A01 T10541079  RH  083%=      5-min Rain = 0
KEN1 101423Z 26003KT M06/M08 A3035 RMK A01 T10551080  RH  082%=      5-min Rain = 0
KEN1 101424Z 26003KT M05/M08 A3035 RMK A01 T10541080  RH  082%=      5-min Rain = 0
KEN1 101425Z 26003KT M06/M08 A3035 RMK A01 T10551081  RH  082%=      5-min Rain = 0
KEN1 101426Z 25004KT M06/M08 A3035 RMK A01 T10561082  RH  082%=      5-min Rain = 0
KEN1 101427Z 25003KT M06/M08 A3035 RMK A01 T10571083  RH  082%=      5-min Rain = 0
KEN1 101428Z 25003KT M06/M08 A3035 RMK A01 T10581082  RH  083%=      5-min Rain = 0
KEN1 101429Z 25003KT M06/M08 A3035 RMK A01 T10581082  RH  083%=      5-min Rain = 0
KEN1 101430Z 25003KT M06/M08 A3035 RMK A01 T10591082  RH  084%=      5-min Rain = 0
KEN1 101431Z 25003KT M06/M08 A3035 RMK A01 T10591082  RH  084%=      5-min Rain = 0
KEN1 101432Z 25003KT M06/M08 A3035 RMK A01 T10591082  RH  084%=      5-min Rain = 0
KEN1 101433Z 24003KT M06/M08 A3035 RMK A01 T10591081  RH  084%=      5-min Rain = 0
KEN1 101434Z 24003KT M06/M08 A3035 RMK A01 T10591081  RH  084%=      5-min Rain = 0
KEN1 101435Z 24004KT M06/M08 A3035 RMK A01 T10581081  RH  084%=      5-min Rain = 0
KEN1 101436Z 24004KT M06/M08 A3035 RMK A01 T10581079  RH  085%=      5-min Rain = 0
KEN1 101437Z 24003KT M06/M08 A3035 RMK A01 T10571078  RH  085%=      5-min Rain = 0
KEN1 101438Z 24003KT M06/M08 A3035 RMK A01 T10561077  RH  085%=      5-min Rain = 0
KEN1 101439Z 24003KT M06/M08 A3035 RMK A01 T10551076  RH  085%=      5-min Rain = 0
KEN1 101440Z 24002KT M05/M08 A3035 RMK A01 T10541075  RH  085%=      5-min Rain = 0
KEN1 101441Z 25002KT M05/M07 A3035 RMK A01 T10531073  RH  086%=      5-min Rain = 0
KEN1 101442Z 25002KT M05/M07 A3035 RMK A01 T10521071  RH  086%=      5-min Rain = 0
KEN1 101443Z 25002KT M05/M07 A3035 RMK A01 T10501070  RH  086%=      5-min Rain = 0
KEN1 101444Z 25002KT M05/M07 A3035 RMK A01 T10491068  RH  086%=      5-min Rain = 0
KEN1 101445Z 25002KT M05/M07 A3035 RMK A01 T10471067  RH  086%=      5-min Rain = 0
KEN1 101446Z 26002KT M05/M07 A3035 RMK A01 T10451065  RH  086%=      5-min Rain = 0
KEN1 101447Z 26002KT M04/M07 A3035 RMK A01 T10441065  RH  085%=      5-min Rain = 0
KEN1 101448Z 25002KT M04/M07 A3035 RMK A01 T10431065  RH  085%=      5-min Rain = 0
KEN1 101449Z 25002KT M04/M07 A3035 RMK A01 T10421065  RH  084%=      5-min Rain = 0
KEN1 101450Z 25003KT M04/M07 A3035 RMK A01 T10411065  RH  083%=      5-min Rain = 0
KEN1 101451Z 25002KT M04/M07 A3035 RMK A01 T10401065  RH  083%=      5-min Rain = 0
KEN1 101452Z 25002KT M04/M06 A3035 RMK A01 T10391064  RH  083%=      5-min Rain = 0
KEN1 101453Z 25002KT M04/M06 A3035 RMK A01 T10381064  RH  082%=      5-min Rain = 0
KEN1 101454Z 26001KT M04/M06 A3036 RMK A01 T10371063  RH  082%=      5-min Rain = 0
KEN1 101455Z 24001KT M04/M06 A3036 RMK A01 T10361063  RH  082%=      5-min Rain = 0
KEN1 101456Z 25001KT M04/M06 A3036 RMK A01 T10361062  RH  082%=      5-min Rain = 0
KEN1 101457Z 25001KT M04/M06 A3036 RMK A01 T10351062  RH  081%=      5-min Rain = 0
KEN1 101458Z 27002KT M03/M06 A3036 RMK A01 T10341062  RH  081%=      5-min Rain = 0
KEN1 101459Z 28001KT M03/M06 A3036 RMK A01 T10331062  RH  081%=      5-min Rain = 0
KEN1 101500Z 27001KT M03/M06 A3036 RMK A01 T10331062  RH  081%=      5-min Rain = 0
KEN1 101501Z 26002KT M03/M06 A3036 RMK A01 T10321061  RH  081%=      5-min Rain = 0
KEN1 101502Z 25001KT M03/M06 A3036 RMK A01 T10311059  RH  081%=      5-min Rain = 0
KEN1 101503Z 25002KT M03/M06 A3036 RMK A01 T10291057  RH  082%=      5-min Rain = 0
KEN1 101504Z 26002KT M03/M06 A3036 RMK A01 T10281055  RH  082%=      5-min Rain = 0
KEN1 101505Z 25002KT M03/M05 A3036 RMK A01 T10261053  RH  082%=      5-min Rain = 0
KEN1 101506Z 26003KT M03/M05 A3036 RMK A01 T10251053  RH  081%=      5-min Rain = 0
KEN1 101507Z 25003KT M03/M06 A3036 RMK A01 T10251055  RH  080%=      5-min Rain = 0
KEN1 101508Z 25003KT M03/M06 A3036 RMK A01 T10251056  RH  079%=      5-min Rain = 0
KEN1 101509Z 25003KT M03/M06 A3036 RMK A01 T10261056  RH  079%=      5-min Rain = 0
KEN1 101510Z 25004KT M03/M06 A3036 RMK A01 T10261056  RH  080%=      5-min Rain = 0
KEN1 101511Z 26004KT M03/M06 A3036 RMK A01 T10261055  RH  080%=      5-min Rain = 0
KEN1 101512Z 26004KT M03/M06 A3036 RMK A01 T10251056  RH  080%=      5-min Rain = 0
KEN1 101513Z 26004KT M03/M06 A3036 RMK A01 T10261056  RH  080%=      5-min Rain = 0
KEN1 101514Z 27004KT M03/M05 A3036 RMK A01 T10251054  RH  080%=      5-min Rain = 0
KEN1 101515Z 26004KT M03/M05 A3036 RMK A01 T10251054  RH  080%=      5-min Rain = 0
KEN1 101516Z 26003KT M02/M05 A3036 RMK A01 T10241053  RH  081%=      5-min Rain = 0
KEN1 101517Z 25003KT M02/M05 A3036 RMK A01 T10231052  RH  081%=      5-min Rain = 0
KEN1 101518Z 25003KT M02/M05 A3036 RMK A01 T10221051  RH  081%=      5-min Rain = 0
KEN1 101519Z 25003KT M02/M05 A3036 RMK A01 T10211051  RH  080%=      5-min Rain = 0
KEN1 101520Z 25003KT M02/M05 A3036 RMK A01 T10211051  RH  080%=      5-min Rain = 0
KEN1 101521Z 24002KT M02/M05 A3036 RMK A01 T10191048  RH  081%=      5-min Rain = 0
KEN1 101522Z 23002KT M02/M05 A3036 RMK A01 T10171046  RH  081%=      5-min Rain = 0
KEN1 101523Z 24003KT M02/M05 A3036 RMK A01 T10171046  RH  080%=      5-min Rain = 0
KEN1 101524Z 24002KT M02/M05 A3036 RMK A01 T10161047  RH  079%=      5-min Rain = 0
KEN1 101525Z 23003KT M02/M05 A3036 RMK A01 T10151046  RH  079%=      5-min Rain = 0
KEN1 101526Z 24003KT M01/M05 A3036 RMK A01 T10141046  RH  079%=      5-min Rain = 0
KEN1 101527Z 25003KT M01/M05 A3036 RMK A01 T10141047  RH  078%=      5-min Rain = 0
KEN1 101528Z 24002KT M01/M05 A3036 RMK A01 T10131047  RH  078%=      5-min Rain = 0
KEN1 101529Z 26001KT M01/M05 A3036 RMK A01 T10121046  RH  078%=      5-min Rain = 0
KEN1 101530Z 23002KT M01/M04 A3036 RMK A01 T10091043  RH  078%=      5-min Rain = 0
KEN1 101531Z 25003KT M01/M04 A3036 RMK A01 T10081044  RH  077%=      5-min Rain = 0
KEN1 101532Z 24003KT M01/M05 A3036 RMK A01 T10081046  RH  076%=      5-min Rain = 0
KEN1 101533Z 25003KT M01/M05 A3036 RMK A01 T10081046  RH  075%=      5-min Rain = 0
KEN1 101534Z 24003KT M01/M05 A3036 RMK A01 T10071045  RH  075%=      5-min Rain = 0
KEN1 101535Z 25004KT M01/M04 A3036 RMK A01 T10061044  RH  075%=      5-min Rain = 0
KEN1 101536Z 25004KT M01/M05 A3036 RMK A01 T10061045  RH  075%=      5-min Rain = 0
KEN1 101537Z 25004KT M01/M04 A3036 RMK A01 T10051042  RH  076%=      5-min Rain = 0
KEN1 101538Z 25004KT M00/M04 A3036 RMK A01 T10041042  RH  076%=      5-min Rain = 0
KEN1 101539Z 25004KT M00/M04 A3036 RMK A01 T10031041  RH  075%=      5-min Rain = 0
KEN1 101540Z 25004KT M00/M04 A3036 RMK A01 T10031041  RH  075%=      5-min Rain = 0
KEN1 101541Z 26004KT M00/M04 A3036 RMK A01 T10021042  RH  075%=      5-min Rain = 0
KEN1 101542Z 26005KT M00/M04 A3036 RMK A01 T10021041  RH  075%=      5-min Rain = 0
KEN1 101543Z 27003KT M00/M04 A3036 RMK A01 T10011040  RH  075%=      5-min Rain = 0
KEN1 101544Z 25004KT 00/04 A3036 RMK A01 T00000-40  RH  074%=      5-min Rain = 0
KEN1 101545Z 26004KT 00/M04 A3036 RMK A01 T00011040  RH  074%=      5-min Rain = 0
KEN1 101546Z 26004KT 00/M04 A3036 RMK A01 T00031038  RH  074%=      5-min Rain = 0
KEN1 101547Z 26004KT 01/M04 A3036 RMK A01 T00051037  RH  073%=      5-min Rain = 0
KEN1 101548Z 27003KT 01/M04 A3036 RMK A01 T00061038  RH  073%=      5-min Rain = 0
KEN1 101549Z 25004KT 01/M03 A3036 RMK A01 T00081034  RH  073%=      5-min Rain = 0
KEN1 101550Z 27004KT 01/M04 A3036 RMK A01 T00091036  RH  072%=      5-min Rain = 0
KEN1 101551Z 27003KT 01/M04 A3036 RMK A01 T00091037  RH  072%=      5-min Rain = 0
KEN1 101552Z 25003KT 01/M04 A3036 RMK A01 T00101036  RH  072%=      5-min Rain = 0
KEN1 101553Z 26004KT 01/M04 A3036 RMK A01 T00121035  RH  071%=      5-min Rain = 0
KEN1 101554Z 26003KT 01/M04 A3036 RMK A01 T00121036  RH  070%=      5-min Rain = 0
KEN1 101555Z 26004KT 01/M04 A3036 RMK A01 T00131036  RH  070%=      5-min Rain = 0
KEN1 101556Z 26004KT 01/M04 A3036 RMK A01 T00141036  RH  069%=      5-min Rain = 0
KEN1 101557Z 26004KT 01/M04 A3036 RMK A01 T00141036  RH  069%=      5-min Rain = 0
KEN1 101558Z 27004KT 02/M04 A3036 RMK A01 T00151037  RH  068%=      5-min Rain = 0
KEN1 101559Z 26004KT 02/M04 A3036 RMK A01 T00151037  RH  068%=      5-min Rain = 0
KEN1 101600Z 26004KT 02/M04 A3036 RMK A01 T00161036  RH  068%=      5-min Rain = 0
KEN1 101601Z 27003KT 02/M04 A3036 RMK A01 T00161037  RH  068%=      5-min Rain = 0
KEN1 101602Z 25003KT 02/M04 A3036 RMK A01 T00171036  RH  068%=      5-min Rain = 0
KEN1 101603Z 27004KT 02/M03 A3036 RMK A01 T00191034  RH  068%=      5-min Rain = 0
KEN1 101604Z 26003KT 02/M03 A3036 RMK A01 T00201034  RH  067%=      5-min Rain = 0
KEN1 101605Z 27003KT 02/M03 A3036 RMK A01 T00211034  RH  067%=      5-min Rain = 0
KEN1 101606Z 27003KT 02/M03 A3036 RMK A01 T00231033  RH  067%=      5-min Rain = 0
KEN1 101607Z 26002KT 02/M03 A3036 RMK A01 T00231033  RH  066%=      5-min Rain = 0
KEN1 101608Z 26004KT 03/M03 A3036 RMK A01 T00251032  RH  066%=      5-min Rain = 0
KEN1 101609Z 25005KT 03/M03 A3036 RMK A01 T00271033  RH  065%=      5-min Rain = 0
KEN1 101610Z 26004KT 03/M03 A3036 RMK A01 T00281034  RH  064%=      5-min Rain = 0
KEN1 101611Z 25005KT 03/M03 A3036 RMK A01 T00291034  RH  063%=      5-min Rain = 0
KEN1 101612Z 25005KT 03/M04 A3036 RMK A01 T00291035  RH  063%=      5-min Rain = 0
KEN1 101613Z 25006KT 03/M04 A3036 RMK A01 T00311035  RH  062%=      5-min Rain = 0
KEN1 101614Z 26006KT 03/M04 A3036 RMK A01 T00331035  RH  061%=      5-min Rain = 0
KEN1 101615Z 26006KT 03/M04 A3036 RMK A01 T00341036  RH  060%=      5-min Rain = 0
KEN1 101616Z 26006KT 03/M04 A3036 RMK A01 T00341036  RH  060%=      5-min Rain = 0
KEN1 101617Z 26006KT 03/M04 A3036 RMK A01 T00341036  RH  060%=      5-min Rain = 0
KEN1 101618Z 25006KT 03/M04 A3036 RMK A01 T00341035  RH  060%=      5-min Rain = 0
KEN1 101619Z 26006KT 04/M04 A3036 RMK A01 T00361035  RH  060%=      5-min Rain = 0
KEN1 101620Z 26006KT 04/M03 A3036 RMK A01 T00371034  RH  060%=      5-min Rain = 0
KEN1 101621Z 26005KT 04/M04 A3036 RMK A01 T00371035  RH  060%=      5-min Rain = 0
KEN1 101622Z 27005KT 04/M03 A3036 RMK A01 T00371034  RH  060%=      5-min Rain = 0
KEN1 101623Z 25004KT 04/M03 A3036 RMK A01 T00381033  RH  060%=      5-min Rain = 0
KEN1 101624Z 25007KT 04/M03 A3036 RMK A01 T00401031  RH  060%=      5-min Rain = 0
KEN1 101625Z 25005KT 04/M03 A3036 RMK A01 T00421031  RH  059%=      5-min Rain = 0
KEN1 101626Z 25006KT 04/M03 A3036 RMK A01 T00431032  RH  058%=      5-min Rain = 0
KEN1 101627Z 25006KT 04/M03 A3036 RMK A01 T00441033  RH  058%=      5-min Rain = 0
KEN1 101628Z 26005KT 04/M03 A3036 RMK A01 T00441034  RH  057%=      5-min Rain = 0
KEN1 101629Z 27005KT 04/M04 A3036 RMK A01 T00441035  RH  057%=      5-min Rain = 0
KEN1 101630Z 27007KT 05/M03 A3036 RMK A01 T00451034  RH  056%=      5-min Rain = 0
KEN1 101631Z 25007KT 05/M04 A3036 RMK A01 T00461038  RH  055%=      5-min Rain = 0
KEN1 101632Z 26006KT 05/M04 A3036 RMK A01 T00461038  RH  054%=      5-min Rain = 0
KEN1 101633Z 27005KT 05/M04 A3036 RMK A01 T00471041  RH  053%=      5-min Rain = 0
KEN1 101634Z 28004KT 05/M04 A3036 RMK A01 T00461041  RH  053%=      5-min Rain = 0
KEN1 101635Z 29005KT 05/M04 A3036 RMK A01 T00481039  RH  053%=      5-min Rain = 0
KEN1 101636Z 30005KT 05/M04 A3036 RMK A01 T00471042  RH  052%=      5-min Rain = 0
KEN1 101637Z 31006KT 05/M04 A3036 RMK A01 T00471042  RH  052%=      5-min Rain = 0
KEN1 101638Z 29006KT 05/M04 A3036 RMK A01 T00471042  RH  052%=      5-min Rain = 0
KEN1 101639Z 30003KT 05/M04 A3036 RMK A01 T00471043  RH  052%=      5-min Rain = 0
KEN1 101640Z 30005KT 05/M04 A3036 RMK A01 T00481041  RH  052%=      5-min Rain = 0
KEN1 101641Z 29006KT 05/M04 A3036 RMK A01 T00491040  RH  052%=      5-min Rain = 0
KEN1 101642Z 30005KT 05/M04 A3036 RMK A01 T00491042  RH  051%=      5-min Rain = 0
KEN1 101643Z 31005KT 05/M04 A3036 RMK A01 T00491042  RH  052%=      5-min Rain = 0
KEN1 101644Z 30006KT 05/M04 A3036 RMK A01 T00511040  RH  052%=      5-min Rain = 0
KEN1 101645Z 29006KT 05/M04 A3036 RMK A01 T00521040  RH  051%=      5-min Rain = 0
KEN1 101646Z 29006KT 05/M04 A3036 RMK A01 T00531042  RH  050%=      5-min Rain = 0
KEN1 101647Z 29005KT 05/M04 A3036 RMK A01 T00521043  RH  050%=      5-min Rain = 0
KEN1 101648Z 30005KT 05/M04 A3036 RMK A01 T00531042  RH  050%=      5-min Rain = 0
KEN1 101649Z 30005KT 05/M04 A3036 RMK A01 T00531042  RH  050%=      5-min Rain = 0
KEN1 101650Z 30005KT 05/M04 A3036 RMK A01 T00541043  RH  050%=      5-min Rain = 0
KEN1 101651Z 30006KT 05/M05 A3036 RMK A01 T00531045  RH  049%=      5-min Rain = 0
KEN1 101652Z 30005KT 05/M04 A3036 RMK A01 T00521044  RH  050%=      5-min Rain = 0
KEN1 101653Z 29005KT 05/M04 A3036 RMK A01 T00531043  RH  050%=      5-min Rain = 0
KEN1 101654Z 28005KT 06/M04 A3036 RMK A01 T00551042  RH  050%=      5-min Rain = 0
KEN1 101655Z 28004KT 06/M04 A3036 RMK A01 T00561043  RH  049%=      5-min Rain = 0
KEN1 101656Z 29005KT 06/M04 A3036 RMK A01 T00561044  RH  049%=      5-min Rain = 0
KEN1 101657Z 28004KT 06/M05 A3036 RMK A01 T00551046  RH  048%=      5-min Rain = 0
KEN1 101658Z 28004KT 05/M05 A3036 RMK A01 T00541045  RH  049%=      5-min Rain = 0
KEN1 101659Z 30005KT 06/M04 A3036 RMK A01 T00551044  RH  049%=      5-min Rain = 0
KEN1 101700Z 30005KT 06/M04 A3035 RMK A01 T00561044  RH  049%=      5-min Rain = 0
KEN1 101701Z 31004KT 06/M04 A3035 RMK A01 T00571044  RH  048%=      5-min Rain = 0
KEN1 101702Z 30003KT 06/M05 A3035 RMK A01 T00571045  RH  048%=      5-min Rain = 0
KEN1 101703Z 32003KT 06/M05 A3035 RMK A01 T00571045  RH  048%=      5-min Rain = 0
KEN1 101704Z 29005KT 06/M04 A3035 RMK A01 T00571044  RH  048%=      5-min Rain = 0
KEN1 101705Z 28004KT 06/M04 A3035 RMK A01 T00581042  RH  048%=      5-min Rain = 0
KEN1 101706Z 32004KT 06/M04 A3035 RMK A01 T00601042  RH  048%=      5-min Rain = 0
KEN1 101707Z 32004KT 06/M04 A3035 RMK A01 T00611043  RH  047%=      5-min Rain = 0
KEN1 101708Z 32003KT 06/M04 A3035 RMK A01 T00601044  RH  047%=      5-min Rain = 0
KEN1 101709Z 31005KT 06/M04 A3035 RMK A01 T00611042  RH  047%=      5-min Rain = 0
KEN1 101710Z 30005KT 06/M04 A3035 RMK A01 T00641039  RH  048%=      5-min Rain = 0
KEN1 101711Z 30004KT 07/M04 A3035 RMK A01 T00651040  RH  047%=      5-min Rain = 0
KEN1 101712Z 31004KT 07/M04 A3035 RMK A01 T00651040  RH  047%=      5-min Rain = 0
KEN1 101713Z 31005KT 06/M04 A3035 RMK A01 T00631043  RH  047%=      5-min Rain = 0
KEN1 101714Z 31004KT 06/M04 A3035 RMK A01 T00631043  RH  047%=      5-min Rain = 0
KEN1 101715Z 29006KT 06/M04 A3035 RMK A01 T00631041  RH  047%=      5-min Rain = 0
KEN1 101716Z 28005KT 06/M04 A3035 RMK A01 T00641041  RH  047%=      5-min Rain = 0
KEN1 101717Z 27004KT 06/M04 A3035 RMK A01 T00641041  RH  047%=      5-min Rain = 0
KEN1 101718Z 28005KT 07/M04 A3035 RMK A01 T00651040  RH  047%=      5-min Rain = 0
KEN1 101719Z 27003KT 07/M04 A3035 RMK A01 T00651041  RH  047%=      5-min Rain = 0
KEN1 101720Z 28003KT 07/M04 A3035 RMK A01 T00651041  RH  046%=      5-min Rain = 0
KEN1 101721Z 27004KT 07/M04 A3035 RMK A01 T00661040  RH  047%=      5-min Rain = 0
KEN1 101722Z 27004KT 07/M04 A3035 RMK A01 T00671040  RH  046%=      5-min Rain = 0
KEN1 101723Z 26002KT 07/M04 A3035 RMK A01 T00691040  RH  046%=      5-min Rain = 0
KEN1 101724Z 24002KT 07/M04 A3035 RMK A01 T00691042  RH  045%=      5-min Rain = 0
KEN1 101725Z 26003KT 07/M04 A3035 RMK A01 T00681042  RH  045%=      5-min Rain = 0
KEN1 101726Z 26002KT 07/M04 A3035 RMK A01 T00681042  RH  045%=      5-min Rain = 0
KEN1 101727Z 28001KT 07/M04 A3034 RMK A01 T00681042  RH  045%=      5-min Rain = 0
KEN1 101728Z 32003KT 07/M04 A3034 RMK A01 T00691040  RH  046%=      5-min Rain = 0
KEN1 101729Z 26005KT 07/M04 A3034 RMK A01 T00711039  RH  045%=      5-min Rain = 0
KEN1 101730Z 26006KT 07/M04 A3034 RMK A01 T00721040  RH  045%=      5-min Rain = 0
KEN1 101731Z 26006KT 07/M04 A3034 RMK A01 T00711040  RH  045%=      5-min Rain = 0
KEN1 101732Z 26004KT 07/M04 A3034 RMK A01 T00701040  RH  045%=      5-min Rain = 0
KEN1 101733Z 26005KT 07/M04 A3034 RMK A01 T00701040  RH  045%=      5-min Rain = 0
KEN1 101734Z 26006KT 07/M04 A3034 RMK A01 T00711039  RH  045%=      5-min Rain = 0
KEN1 101735Z 27004KT 07/M04 A3034 RMK A01 T00731039  RH  045%=      5-min Rain = 0
KEN1 101736Z 27004KT 07/M04 A3034 RMK A01 T00721041  RH  044%=      5-min Rain = 0
KEN1 101737Z 26004KT 07/M04 A3034 RMK A01 T00731039  RH  045%=      5-min Rain = 0
KEN1 101738Z 26003KT 07/M04 A3034 RMK A01 T00731040  RH  044%=      5-min Rain = 0
KEN1 101739Z 26004KT 07/M04 A3034 RMK A01 T00731041  RH  044%=      5-min Rain = 0
KEN1 101740Z 26006KT 07/M04 A3034 RMK A01 T00731040  RH  045%=      5-min Rain = 0
KEN1 101741Z 26006KT 07/M04 A3034 RMK A01 T00731040  RH  044%=      5-min Rain = 0
KEN1 101742Z 26004KT 07/M04 A3034 RMK A01 T00731040  RH  044%=      5-min Rain = 0
KEN1 101743Z 23003KT 07/M04 A3034 RMK A01 T00741039  RH  045%=      5-min Rain = 0
KEN1 101744Z 26003KT 08/M04 A3034 RMK A01 T00751038  RH  045%=      5-min Rain = 0
KEN1 101745Z 29004KT 08/M04 A3034 RMK A01 T00771038  RH  044%=      5-min Rain = 0
KEN1 101746Z 27005KT 08/M04 A3034 RMK A01 T00791037  RH  044%=      5-min Rain = 0
KEN1 101747Z 28005KT 08/M04 A3034 RMK A01 T00791038  RH  043%=      5-min Rain = 0
KEN1 101748Z 28005KT 08/M04 A3034 RMK A01 T00791037  RH  044%=      5-min Rain = 0
KEN1 101749Z 27007KT 08/M03 A3034 RMK A01 T00811034  RH  044%=      5-min Rain = 0
KEN1 101750Z 27005KT 08/M04 A3033 RMK A01 T00811037  RH  043%=      5-min Rain = 0
KEN1 101751Z 28003KT 08/M04 A3033 RMK A01 T00791038  RH  043%=      5-min Rain = 0
KEN1 101752Z 27004KT 08/M04 A3033 RMK A01 T00791037  RH  044%=      5-min Rain = 0
KEN1 101753Z 27004KT 08/M04 A3033 RMK A01 T00791037  RH  044%=      5-min Rain = 0
KEN1 101754Z 26003KT 08/M04 A3033 RMK A01 T00791037  RH  043%=      5-min Rain = 0
KEN1 101755Z 24004KT 08/M04 A3033 RMK A01 T00801036  RH  044%=      5-min Rain = 0
KEN1 101756Z 26004KT 08/M03 A3033 RMK A01 T00811034  RH  044%=      5-min Rain = 0
KEN1 101757Z 28003KT 08/M04 A3033 RMK A01 T00831035  RH  043%=      5-min Rain = 0
KEN1 101758Z 26005KT 08/M04 A3033 RMK A01 T00821037  RH  043%=      5-min Rain = 0
KEN1 101759Z 28005KT 08/M04 A3033 RMK A01 T00811037  RH  043%=      5-min Rain = 0
KEN1 101800Z 27004KT 08/M04 A3033 RMK A01 T00811036  RH  043%=      5-min Rain = 0
KEN1 101801Z 25004KT 08/M04 A3033 RMK A01 T00811035  RH  043%=      5-min Rain = 0
KEN1 101802Z 27003KT 08/M04 A3033 RMK A01 T00821036  RH  043%=      5-min Rain = 0
KEN1 101803Z 28002KT 08/M04 A3033 RMK A01 T00821037  RH  043%=      5-min Rain = 0
KEN1 101804Z 27003KT 08/M04 A3032 RMK A01 T00801037  RH  043%=      5-min Rain = 0
KEN1 101805Z 27006KT 08/M03 A3032 RMK A01 T00831034  RH  044%=      5-min Rain = 0
KEN1 101806Z 27006KT 09/M04 A3032 RMK A01 T00851035  RH  043%=      5-min Rain = 0
KEN1 101807Z 28006KT 09/M04 A3032 RMK A01 T00851036  RH  042%=      5-min Rain = 0
KEN1 101808Z 28004KT 08/M04 A3032 RMK A01 T00841037  RH  042%=      5-min Rain = 0
KEN1 101809Z 27005KT 08/M04 A3032 RMK A01 T00841036  RH  042%=      5-min Rain = 0
KEN1 101810Z 27006KT 09/M04 A3032 RMK A01 T00851036  RH  042%=      5-min Rain = 0
KEN1 101811Z 26004KT 08/M04 A3032 RMK A01 T00841038  RH  042%=      5-min Rain = 0
KEN1 101812Z 26006KT 08/M04 A3032 RMK A01 T00841037  RH  042%=      5-min Rain = 0
KEN1 101813Z 27006KT 08/M04 A3032 RMK A01 T00841037  RH  042%=      5-min Rain = 0
KEN1 101814Z 27005KT 08/M04 A3032 RMK A01 T00841037  RH  042%=      5-min Rain = 0
KEN1 101815Z 29003KT 09/M04 A3032 RMK A01 T00851037  RH  042%=      5-min Rain = 0
KEN1 101816Z 27004KT 09/M04 A3031 RMK A01 T00861037  RH  042%=      5-min Rain = 0
KEN1 101817Z 26004KT 09/M04 A3031 RMK A01 T00861039  RH  041%=      5-min Rain = 0
KEN1 101818Z 27005KT 09/M04 A3031 RMK A01 T00851038  RH  042%=      5-min Rain = 0
KEN1 101819Z 27005KT 09/M04 A3031 RMK A01 T00861037  RH  042%=      5-min Rain = 0
KEN1 101820Z 28005KT 09/M04 A3031 RMK A01 T00861038  RH  041%=      5-min Rain = 0
KEN1 101821Z 27005KT 09/M04 A3031 RMK A01 T00861038  RH  041%=      5-min Rain = 0
KEN1 101822Z 29003KT 09/M04 A3031 RMK A01 T00881036  RH  042%=      5-min Rain = 0
KEN1 101823Z 28002KT 09/M04 A3031 RMK A01 T00881037  RH  041%=      5-min Rain = 0
KEN1 101824Z 29001KT 09/M04 A3031 RMK A01 T00881038  RH  041%=      5-min Rain = 0
KEN1 101825Z 26004KT 09/M04 A3031 RMK A01 T00901035  RH  041%=      5-min Rain = 0
KEN1 101826Z 26004KT 09/M04 A3031 RMK A01 T00931035  RH  041%=      5-min Rain = 0
KEN1 101827Z 24004KT 09/M04 A3031 RMK A01 T00921037  RH  040%=      5-min Rain = 0
KEN1 101828Z 27005KT 09/M04 A3031 RMK A01 T00911037  RH  040%=      5-min Rain = 0
KEN1 101829Z 27005KT 09/M04 A3031 RMK A01 T00911039  RH  040%=      5-min Rain = 0
KEN1 101830Z 29005KT 09/M04 A303 RMK A01 T00891039  RH  040%=      5-min Rain = 0
KEN1 101831Z 28004KT 09/M04 A303 RMK A01 T00901038  RH  040%=      5-min Rain = 0
KEN1 101832Z 26004KT 09/M04 A303 RMK A01 T00911039  RH  040%=      5-min Rain = 0
KEN1 101833Z 27004KT 09/M04 A303 RMK A01 T00921038  RH  040%=      5-min Rain = 0
KEN1 101834Z 28005KT 09/M04 A303 RMK A01 T00931039  RH  039%=      5-min Rain = 0
KEN1 101835Z 28003KT 09/M04 A303 RMK A01 T00941041  RH  038%=      5-min Rain = 0
KEN1 101836Z 26004KT 09/M04 A303 RMK A01 T00931041  RH  039%=      5-min Rain = 0
KEN1 101837Z 27001KT 09/M04 A303 RMK A01 T00941038  RH  039%=      5-min Rain = 0
KEN1 101838Z 30003KT 10/M04 A303 RMK A01 T00961038  RH  039%=      5-min Rain = 0
KEN1 101839Z 30004KT 10/M04 A303 RMK A01 T00961038  RH  039%=      5-min Rain = 0
KEN1 101840Z 28003KT 10/M04 A303 RMK A01 T00951040  RH  038%=      5-min Rain = 0
KEN1 101841Z 28003KT 10/M04 A303 RMK A01 T00951040  RH  038%=      5-min Rain = 0
KEN1 101842Z 32003KT 10/M04 A303 RMK A01 T00961040  RH  038%=      5-min Rain = 0
KEN1 101843Z 32003KT 10/M04 A303 RMK A01 T00951041  RH  038%=      5-min Rain = 0
KEN1 101844Z 32002KT 10/M04 A3029 RMK A01 T00961041  RH  038%=      5-min Rain = 0
KEN1 101845Z 22003KT 10/M04 A3029 RMK A01 T00981038  RH  038%=      5-min Rain = 0
KEN1 101846Z 21003KT 10/M04 A3029 RMK A01 T01001042  RH  036%=      5-min Rain = 0
KEN1 101847Z 20004KT 10/M04 A3029 RMK A01 T01001041  RH  037%=      5-min Rain = 0
KEN1 101848Z 21003KT 10/M04 A3029 RMK A01 T01011040  RH  037%=      5-min Rain = 0
KEN1 101849Z 21003KT 10/M04 A3029 RMK A01 T01001041  RH  037%=      5-min Rain = 0
KEN1 101850Z 29003KT 10/M04 A3029 RMK A01 T01011040  RH  037%=      5-min Rain = 0
KEN1 101851Z 30004KT 10/M05 A3029 RMK A01 T01011045  RH  035%=      5-min Rain = 0
KEN1 101852Z 28003KT 10/M04 A3029 RMK A01 T01021044  RH  035%=      5-min Rain = 0
KEN1 101853Z 29002KT 10/M05 A3029 RMK A01 T01021045  RH  035%=      5-min Rain = 0
KEN1 101854Z 31003KT 10/M05 A3029 RMK A01 T01011045  RH  035%=      5-min Rain = 0
KEN1 101855Z 29003KT 10/M05 A3029 RMK A01 T01011047  RH  035%=      5-min Rain = 0
KEN1 101856Z 26003KT 10/M05 A3029 RMK A01 T01011048  RH  035%=      5-min Rain = 0
KEN1 101857Z 24003KT 10/M05 A3029 RMK A01 T01011046  RH  035%=      5-min Rain = 0
KEN1 101858Z 27002KT 10/M04 A3029 RMK A01 T01011044  RH  036%=      5-min Rain = 0
KEN1 101859Z 31003KT 10/M05 A3029 RMK A01 T01021047  RH  035%=      5-min Rain = 0
KEN1 101900Z 30003KT 10/M05 A3029 RMK A01 T01021048  RH  034%=      5-min Rain = 0
KEN1 101901Z 31002KT 10/M05 A3029 RMK A01 T01011049  RH  034%=      5-min Rain = 0
KEN1 101902Z 30002KT 10/M05 A3029 RMK A01 T01011048  RH  035%=      5-min Rain = 0
KEN1 101903Z 27001KT 10/M05 A3029 RMK A01 T01011045  RH  035%=      5-min Rain = 0
KEN1 101904Z 25002KT 10/M04 A3029 RMK A01 T01041043  RH  035%=      5-min Rain = 0
KEN1 101905Z 21003KT 11/M04 A3029 RMK A01 T01051044  RH  035%=      5-min Rain = 0
KEN1 101906Z 23005KT 11/M05 A3029 RMK A01 T01061045  RH  034%=      5-min Rain = 0
KEN1 101907Z 25005KT 11/M05 A3029 RMK A01 T01071047  RH  034%=      5-min Rain = 0
KEN1 101908Z 24004KT 11/M05 A3029 RMK A01 T01061047  RH  034%=      5-min Rain = 0
KEN1 101909Z 25001KT 11/M05 A3029 RMK A01 T01051046  RH  034%=      5-min Rain = 0
KEN1 101910Z 21003KT 11/M05 A3029 RMK A01 T01061045  RH  034%=      5-min Rain = 0
KEN1 101911Z 21004KT 11/M05 A3029 RMK A01 T01071046  RH  034%=      5-min Rain = 0
KEN1 101912Z 22006KT 11/M05 A3028 RMK A01 T01071047  RH  033%=      5-min Rain = 0
KEN1 101913Z 23005KT 11/M05 A3028 RMK A01 T01071049  RH  033%=      5-min Rain = 0
KEN1 101914Z 26004KT 11/M05 A3028 RMK A01 T01071047  RH  033%=      5-min Rain = 0
KEN1 101915Z 26002KT 11/M05 A3028 RMK A01 T01071046  RH  034%=      5-min Rain = 0
KEN1 101916Z 20003KT 11/M05 A3028 RMK A01 T01081047  RH  033%=      5-min Rain = 0
KEN1 101917Z 20004KT 11/M05 A3028 RMK A01 T01081050  RH  032%=      5-min Rain = 0
KEN1 101918Z 18004KT 11/M05 A3028 RMK A01 T01081049  RH  033%=      5-min Rain = 0
KEN1 101919Z 21004KT 11/M05 A3028 RMK A01 T01081048  RH  033%=      5-min Rain = 0
KEN1 101920Z 22005KT 11/M05 A3028 RMK A01 T01091048  RH  033%=      5-min Rain = 0
KEN1 101921Z 21003KT 11/M05 A3028 RMK A01 T01091050  RH  032%=      5-min Rain = 0
KEN1 101922Z 22003KT 11/M05 A3028 RMK A01 T01111047  RH  033%=      5-min Rain = 0
KEN1 101923Z 19004KT 11/M05 A3028 RMK A01 T01121050  RH  032%=      5-min Rain = 0
KEN1 101924Z 22004KT 11/M05 A3028 RMK A01 T01121048  RH  032%=      5-min Rain = 0
KEN1 101925Z 20002KT 11/M05 A3028 RMK A01 T01131047  RH  032%=      5-min Rain = 0
KEN1 101926Z 15002KT 11/M05 A3028 RMK A01 T01131047  RH  032%=      5-min Rain = 0
KEN1 101927Z 20005KT 11/M05 A3028 RMK A01 T01131045  RH  033%=      5-min Rain = 0
KEN1 101928Z 22006KT 12/M04 A3028 RMK A01 T01161043  RH  033%=      5-min Rain = 0
KEN1 101929Z 23004KT 12/M05 A3028 RMK A01 T01151047  RH  032%=      5-min Rain = 0
KEN1 101930Z 18003KT 11/M05 A3028 RMK A01 T01141046  RH  032%=      5-min Rain = 0
KEN1 101931Z 20003KT 12/M05 A3028 RMK A01 T01151048  RH  032%=      5-min Rain = 0
KEN1 101932Z 22005KT 11/M05 A3028 RMK A01 T01141049  RH  032%=      5-min Rain = 0
KEN1 101933Z 22005KT 11/M05 A3028 RMK A01 T01121053  RH  031%=      5-min Rain = 0
KEN1 101934Z 22003KT 11/M06 A3028 RMK A01 T01111055  RH  031%=      5-min Rain = 0
KEN1 101935Z 21003KT 11/M05 A3028 RMK A01 T01101054  RH  031%=      5-min Rain = 0
KEN1 101936Z 24003KT 11/M06 A3027 RMK A01 T01101056  RH  031%=      5-min Rain = 0
KEN1 101937Z 24004KT 11/M05 A3027 RMK A01 T01121053  RH  031%=      5-min Rain = 0
KEN1 101938Z 22004KT 11/M05 A3027 RMK A01 T01131053  RH  031%=      5-min Rain = 0
KEN1 101939Z 20004KT 11/M05 A3027 RMK A01 T01131054  RH  031%=      5-min Rain = 0
KEN1 101940Z 22004KT 11/M06 A3027 RMK A01 T01131055  RH  030%=      5-min Rain = 0
KEN1 101941Z 24003KT 11/M05 A3027 RMK A01 T01141054  RH  030%=      5-min Rain = 0
KEN1 101942Z 23003KT 11/M06 A3027 RMK A01 T01141056  RH  030%=      5-min Rain = 0
KEN1 101943Z 26002KT 11/M05 A3027 RMK A01 T01141054  RH  030%=      5-min Rain = 0
KEN1 101944Z 25002KT 12/M05 A3027 RMK A01 T01151054  RH  030%=      5-min Rain = 0
KEN1 101945Z 22002KT 12/M05 A3027 RMK A01 T01161053  RH  030%=      5-min Rain = 0
KEN1 101946Z 21003KT 12/M05 A3027 RMK A01 T01161054  RH  030%=      5-min Rain = 0
KEN1 101947Z 21004KT 12/M05 A3027 RMK A01 T01161053  RH  030%=      5-min Rain = 0
KEN1 101948Z 23003KT 12/M06 A3027 RMK A01 T01171055  RH  030%=      5-min Rain = 0
KEN1 101949Z 28004KT 12/M06 A3027 RMK A01 T01181055  RH  029%=      5-min Rain = 0
KEN1 101950Z 29005KT 12/M06 A3027 RMK A01 T01191059  RH  028%=      5-min Rain = 0
KEN1 101951Z 27004KT 12/M06 A3027 RMK A01 T01171058  RH  029%=      5-min Rain = 0
KEN1 101952Z 27002KT 12/M06 A3027 RMK A01 T01151057  RH  029%=      5-min Rain = 0
KEN1 101953Z 25003KT 12/M05 A3027 RMK A01 T01161053  RH  030%=      5-min Rain = 0
KEN1 101954Z 23004KT 12/M06 A3026 RMK A01 T01181060  RH  028%=      5-min Rain = 0
KEN1 101955Z 23003KT 12/M07 A3026 RMK A01 T01181067  RH  027%=      5-min Rain = 0
KEN1 101956Z 25001KT 12/M07 A3026 RMK A01 T01171070  RH  026%=      5-min Rain = 0
KEN1 101957Z 29000KT 12/M07 A3026 RMK A01 T01181069  RH  026%=      5-min Rain = 0
KEN1 101958Z 23002KT 12/M07 A3026 RMK A01 T01201068  RH  026%=      5-min Rain = 0
KEN1 101959Z 22003KT 12/M07 A3026 RMK A01 T01211067  RH  026%=      5-min Rain = 0
KEN1 102000Z 27003KT 12/M07 A3026 RMK A01 T01211070  RH  026%=      5-min Rain = 0
KEN1 102001Z 26005KT 12/M07 A3026 RMK A01 T01211074  RH  025%=      5-min Rain = 0
KEN1 102002Z 26005KT 12/M08 A3026 RMK A01 T01201075  RH  025%=      5-min Rain = 0
KEN1 102003Z 26005KT 12/M07 A3026 RMK A01 T01191071  RH  026%=      5-min Rain = 0
KEN1 102004Z 27005KT 12/M07 A3026 RMK A01 T01191070  RH  026%=      5-min Rain = 0
KEN1 102005Z 28004KT 12/M07 A3026 RMK A01 T01181071  RH  026%=      5-min Rain = 0
KEN1 102006Z 26003KT 12/M07 A3026 RMK A01 T01171071  RH  026%=      5-min Rain = 0
KEN1 102007Z 26003KT 12/M07 A3026 RMK A01 T01191068  RH  026%=      5-min Rain = 0
KEN1 102008Z 27003KT 12/M07 A3026 RMK A01 T01211068  RH  026%=      5-min Rain = 0
KEN1 102009Z 26003KT 12/M07 A3026 RMK A01 T01211069  RH  026%=      5-min Rain = 0
KEN1 102010Z 23003KT 12/M07 A3026 RMK A01 T01211069  RH  026%=      5-min Rain = 0
KEN1 102011Z 26003KT 12/M07 A3026 RMK A01 T01221067  RH  026%=      5-min Rain = 0
KEN1 102012Z 25003KT 12/M06 A3026 RMK A01 T01231064  RH  027%=      5-min Rain = 0
KEN1 102013Z 25005KT 12/M06 A3026 RMK A01 T01241063  RH  027%=      5-min Rain = 0
KEN1 102014Z 23005KT 12/M06 A3026 RMK A01 T01241063  RH  027%=      5-min Rain = 0
KEN1 102015Z 21005KT 13/M06 A3026 RMK A01 T01251062  RH  027%=      5-min Rain = 0
KEN1 102016Z 19002KT 12/M06 A3026 RMK A01 T01241063  RH  027%=      5-min Rain = 0
KEN1 102017Z 23003KT 13/M06 A3026 RMK A01 T01251062  RH  027%=      5-min Rain = 0
KEN1 102018Z 21005KT 13/M06 A3026 RMK A01 T01261061  RH  027%=      5-min Rain = 0
KEN1 102019Z 20004KT 13/M06 A3026 RMK A01 T01281061  RH  026%=      5-min Rain = 0
KEN1 102020Z 19007KT 13/M06 A3025 RMK A01 T01271059  RH  027%=      5-min Rain = 0
KEN1 102021Z 19006KT 13/M06 A3025 RMK A01 T01261061  RH  027%=      5-min Rain = 0
KEN1 102022Z 23005KT 13/M06 A3026 RMK A01 T01251062  RH  027%=      5-min Rain = 0
KEN1 102023Z 24003KT 12/M06 A3025 RMK A01 T01241061  RH  027%=      5-min Rain = 0
KEN1 102024Z 25003KT 12/M06 A3025 RMK A01 T01241061  RH  027%=      5-min Rain = 0
KEN1 102025Z 25005KT 12/M06 A3025 RMK A01 T01241061  RH  027%=      5-min Rain = 0
KEN1 102026Z 26002KT 12/M06 A3025 RMK A01 T01241061  RH  027%=      5-min Rain = 0
KEN1 102027Z 17003KT 13/M06 A3025 RMK A01 T01251059  RH  027%=      5-min Rain = 0
KEN1 102028Z 17003KT 13/M06 A3025 RMK A01 T01281058  RH  027%=      5-min Rain = 0
KEN1 102029Z 20003KT 13/M06 A3025 RMK A01 T01301058  RH  027%=      5-min Rain = 0
KEN1 102030Z 18002KT 13/M06 A3025 RMK A01 T01301058  RH  027%=      5-min Rain = 0
KEN1 102031Z 26001KT 13/M06 A3025 RMK A01 T01321058  RH  026%=      5-min Rain = 0
KEN1 102032Z 25002KT 13/M06 A3025 RMK A01 T01341058  RH  026%=      5-min Rain = 0
KEN1 102033Z 27004KT 13/M06 A3025 RMK A01 T01341058  RH  026%=      5-min Rain = 0
KEN1 102034Z 28004KT 13/M06 A3025 RMK A01 T01321061  RH  026%=      5-min Rain = 0
KEN1 102035Z 26004KT 13/M06 A3025 RMK A01 T01301060  RH  026%=      5-min Rain = 0
KEN1 102036Z 21003KT 13/M06 A3025 RMK A01 T01301058  RH  027%=      5-min Rain = 0
KEN1 102037Z 20001KT 13/M06 A3025 RMK A01 T01311059  RH  026%=      5-min Rain = 0
KEN1 102038Z 23002KT 13/M06 A3025 RMK A01 T01321059  RH  026%=      5-min Rain = 0
KEN1 102039Z 25001KT 13/M06 A3025 RMK A01 T01331060  RH  026%=      5-min Rain = 0
KEN1 102040Z 32001KT 13/M06 A3025 RMK A01 T01341059  RH  026%=      5-min Rain = 0
KEN1 102041Z 21001KT 14/M06 A3024 RMK A01 T01361057  RH  026%=      5-min Rain = 0
KEN1 102042Z 21001KT 14/M06 A3024 RMK A01 T01381058  RH  025%=      5-min Rain = 0
KEN1 102043Z 18002KT 14/M06 A3024 RMK A01 T01391059  RH  025%=      5-min Rain = 0
KEN1 102044Z 17001KT 14/M06 A3024 RMK A01 T01391059  RH  025%=      5-min Rain = 0
KEN1 102045Z 19003KT 14/M06 A3024 RMK A01 T01371059  RH  025%=      5-min Rain = 0
KEN1 102046Z 18001KT 14/M06 A3024 RMK A01 T01361060  RH  025%=      5-min Rain = 0
KEN1 102047Z 12001KT 14/M06 A3024 RMK A01 T01351060  RH  025%=      5-min Rain = 0
KEN1 102048Z 23000KT 14/M06 A3024 RMK A01 T01351060  RH  025%=      5-min Rain = 0
KEN1 102049Z 22001KT 14/M06 A3024 RMK A01 T01371059  RH  025%=      5-min Rain = 0
KEN1 102050Z 22002KT 14/M06 A3024 RMK A01 T01381058  RH  025%=      5-min Rain = 0
KEN1 102051Z 17004KT 14/M06 A3024 RMK A01 T01401057  RH  025%=      5-min Rain = 0
KEN1 102052Z 15003KT 14/M06 A3024 RMK A01 T01391059  RH  025%=      5-min Rain = 0
KEN1 102053Z 17002KT 14/M06 A3024 RMK A01 T01381059  RH  025%=      5-min Rain = 0
KEN1 102054Z 27001KT 14/M06 A3024 RMK A01 T01381058  RH  025%=      5-min Rain = 0
KEN1 102055Z 28002KT 14/M06 A3024 RMK A01 T01381059  RH  025%=      5-min Rain = 0
KEN1 102056Z 28001KT 14/M06 A3024 RMK A01 T01371060  RH  025%=      5-min Rain = 0
KEN1 102057Z 27001KT 14/M06 A3024 RMK A01 T01371057  RH  025%=      5-min Rain = 0
KEN1 102058Z 21002KT 14/M06 A3024 RMK A01 T01381058  RH  025%=      5-min Rain = 0
KEN1 102059Z 19002KT 14/M06 A3024 RMK A01 T01391058  RH  025%=      5-min Rain = 0
KEN1 102100Z 20001KT 14/M06 A3024 RMK A01 T01381059  RH  025%=      5-min Rain = 0
KEN1 102101Z 20000KT 14/M06 A3024 RMK A01 T01381059  RH  025%=      5-min Rain = 0
KEN1 102102Z 20002KT 14/M06 A3024 RMK A01 T01391058  RH  025%=      5-min Rain = 0
KEN1 102103Z 19003KT 14/M06 A3024 RMK A01 T01401060  RH  025%=      5-min Rain = 0
KEN1 102104Z 18001KT 14/M06 A3024 RMK A01 T01401058  RH  025%=      5-min Rain = 0
KEN1 102105Z 20001KT 14/M06 A3024 RMK A01 T01401058  RH  025%=      5-min Rain = 0
KEN1 102106Z 24004KT 14/M06 A3024 RMK A01 T01401058  RH  025%=      5-min Rain = 0
KEN1 102107Z 22002KT 14/M06 A3023 RMK A01 T01391060  RH  025%=      5-min Rain = 0
KEN1 102108Z 29001KT 14/M06 A3023 RMK A01 T01391062  RH  024%=      5-min Rain = 0
KEN1 102109Z 30000KT 14/M06 A3023 RMK A01 T01381063  RH  024%=      5-min Rain = 0
KEN1 102110Z 25002KT 14/M06 A3023 RMK A01 T01371063  RH  024%=      5-min Rain = 0
KEN1 102111Z 21004KT 14/M06 A3023 RMK A01 T01381059  RH  025%=      5-min Rain = 0
KEN1 102112Z 20003KT 14/M06 A3023 RMK A01 T01381060  RH  025%=      5-min Rain = 0
KEN1 102113Z 19002KT 14/M06 A3023 RMK A01 T01381060  RH  025%=      5-min Rain = 0
KEN1 102114Z 21004KT 14/M06 A3023 RMK A01 T01381059  RH  025%=      5-min Rain = 0
KEN1 102115Z 24004KT 14/M06 A3023 RMK A01 T01391060  RH  025%=      5-min Rain = 0
KEN1 102116Z 24004KT 14/M06 A3023 RMK A01 T01391060  RH  025%=      5-min Rain = 0
KEN1 102117Z 24003KT 14/M06 A3023 RMK A01 T01381060  RH  025%=      5-min Rain = 0
KEN1 102118Z 19004KT 14/M06 A3023 RMK A01 T01381060  RH  025%=      5-min Rain = 0
KEN1 102119Z 19005KT 14/M06 A3023 RMK A01 T01381061  RH  025%=      5-min Rain = 0
KEN1 102120Z 20004KT 14/M06 A3023 RMK A01 T01381061  RH  025%=      5-min Rain = 0
KEN1 102121Z 23003KT 14/M06 A3023 RMK A01 T01381060  RH  025%=      5-min Rain = 0
KEN1 102122Z 24002KT 14/M06 A3023 RMK A01 T01391058  RH  025%=      5-min Rain = 0
KEN1 102123Z 26002KT 14/M06 A3023 RMK A01 T01401060  RH  025%=      5-min Rain = 0
KEN1 102124Z 29002KT 14/M06 A3023 RMK A01 T01401060  RH  024%=      5-min Rain = 0
KEN1 102125Z 25003KT 14/M06 A3023 RMK A01 T01401061  RH  024%=      5-min Rain = 0
KEN1 102126Z 22006KT 14/M06 A3023 RMK A01 T01401060  RH  024%=      5-min Rain = 0
KEN1 102127Z 23003KT 14/M06 A3023 RMK A01 T01391061  RH  024%=      5-min Rain = 0
KEN1 102128Z 20001KT 14/M06 A3023 RMK A01 T01381063  RH  024%=      5-min Rain = 0
KEN1 102129Z 19002KT 14/M06 A3023 RMK A01 T01391062  RH  024%=      5-min Rain = 0
KEN1 102130Z 16001KT 14/M06 A3023 RMK A01 T01411059  RH  024%=      5-min Rain = 0
KEN1 102131Z 21002KT 14/M06 A3023 RMK A01 T01431058  RH  024%=      5-min Rain = 0
KEN1 102132Z 22002KT 15/M06 A3023 RMK A01 T01451059  RH  024%=      5-min Rain = 0
KEN1 102133Z 21001KT 15/M06 A3022 RMK A01 T01451060  RH  024%=      5-min Rain = 0
KEN1 102134Z 23001KT 15/M06 A3022 RMK A01 T01451060  RH  024%=      5-min Rain = 0
KEN1 102135Z 22001KT 15/M06 A3022 RMK A01 T01461058  RH  024%=      5-min Rain = 0
KEN1 102136Z 22002KT 15/M06 A3022 RMK A01 T01481058  RH  024%=      5-min Rain = 0
KEN1 102137Z 23004KT 15/M06 A3022 RMK A01 T01481060  RH  023%=      5-min Rain = 0
KEN1 102138Z 23003KT 15/M06 A3022 RMK A01 T01461060  RH  023%=      5-min Rain = 0
KEN1 102139Z 23002KT 15/M06 A3022 RMK A01 T01451061  RH  024%=      5-min Rain = 0
KEN1 102140Z 23003KT 15/M06 A3022 RMK A01 T01451061  RH  024%=      5-min Rain = 0
KEN1 102141Z 22005KT 15/M06 A3022 RMK A01 T01451062  RH  023%=      5-min Rain = 0
KEN1 102142Z 19004KT 14/M06 A3022 RMK A01 T01441062  RH  024%=      5-min Rain = 0
KEN1 102143Z 20003KT 14/M06 A3022 RMK A01 T01441062  RH  024%=      5-min Rain = 0
KEN1 102144Z 24004KT 14/M06 A3022 RMK A01 T01431062  RH  024%=      5-min Rain = 0
KEN1 102145Z 24005KT 14/M06 A3022 RMK A01 T01431064  RH  023%=      5-min Rain = 0
KEN1 102146Z 23003KT 14/M07 A3022 RMK A01 T01421065  RH  023%=      5-min Rain = 0
KEN1 102147Z 27002KT 14/M07 A3022 RMK A01 T01401067  RH  023%=      5-min Rain = 0
KEN1 102148Z 28003KT 14/M06 A3022 RMK A01 T01401064  RH  024%=      5-min Rain = 0
KEN1 102149Z 27003KT 14/M06 A3022 RMK A01 T01401062  RH  024%=      5-min Rain = 0
KEN1 102150Z 25004KT 14/M06 A3022 RMK A01 T01411063  RH  024%=      5-min Rain = 0
KEN1 102151Z 25003KT 14/M06 A3022 RMK A01 T01401062  RH  024%=      5-min Rain = 0
KEN1 102152Z 23002KT 14/M06 A3022 RMK A01 T01401063  RH  024%=      5-min Rain = 0
KEN1 102153Z 22004KT 14/M06 A3022 RMK A01 T01411061  RH  024%=      5-min Rain = 0
KEN1 102154Z 22003KT 14/M06 A3022 RMK A01 T01421062  RH  024%=      5-min Rain = 0
KEN1 102155Z 21003KT 14/M06 A3022 RMK A01 T01431063  RH  023%=      5-min Rain = 0
KEN1 102156Z 21003KT 14/M06 A3022 RMK A01 T01431064  RH  023%=      5-min Rain = 0
KEN1 102157Z 24003KT 14/M06 A3022 RMK A01 T01431063  RH  023%=      5-min Rain = 0
KEN1 102158Z 23005KT 14/M06 A3022 RMK A01 T01431063  RH  023%=      5-min Rain = 0
KEN1 102159Z 23005KT 14/M06 A3022 RMK A01 T01441064  RH  023%=      5-min Rain = 0
KEN1 102200Z 23005KT 15/M06 A3022 RMK A01 T01451064  RH  023%=      5-min Rain = 0
KEN1 102201Z 23005KT 14/M07 A3022 RMK A01 T01441065  RH  023%=      5-min Rain = 0
KEN1 102202Z 24005KT 14/M06 A3022 RMK A01 T01441064  RH  023%=      5-min Rain = 0
KEN1 102203Z 24004KT 14/M06 A3022 RMK A01 T01431063  RH  023%=      5-min Rain = 0
KEN1 102204Z 21006KT 14/M06 A3022 RMK A01 T01441063  RH  023%=      5-min Rain = 0
KEN1 102205Z 21005KT 14/M07 A3022 RMK A01 T01441066  RH  023%=      5-min Rain = 0
KEN1 102206Z 21004KT 14/M07 A3022 RMK A01 T01431067  RH  023%=      5-min Rain = 0
KEN1 102207Z 20004KT 14/M07 A3023 RMK A01 T01431066  RH  023%=      5-min Rain = 0
KEN1 102208Z 21003KT 14/M07 A3023 RMK A01 T01441066  RH  023%=      5-min Rain = 0
KEN1 102209Z 21004KT 15/M07 A3023 RMK A01 T01451065  RH  023%=      5-min Rain = 0
KEN1 102210Z 22004KT 15/M07 A3023 RMK A01 T01451066  RH  023%=      5-min Rain = 0
KEN1 102211Z 22002KT 14/M07 A3023 RMK A01 T01441068  RH  022%=      5-min Rain = 0
KEN1 102212Z 20001KT 14/M07 A3023 RMK A01 T01431068  RH  023%=      5-min Rain = 0
KEN1 102213Z 24002KT 14/M07 A3023 RMK A01 T01431068  RH  023%=      5-min Rain = 0
KEN1 102214Z 24003KT 14/M07 A3023 RMK A01 T01441067  RH  022%=      5-min Rain = 0
KEN1 102215Z 22004KT 15/M07 A3022 RMK A01 T01451067  RH  023%=      5-min Rain = 0
KEN1 102216Z 21003KT 14/M07 A3022 RMK A01 T01441067  RH  023%=      5-min Rain = 0
KEN1 102217Z 21003KT 14/M07 A3022 RMK A01 T01431068  RH  023%=      5-min Rain = 0
KEN1 102218Z 26003KT 14/M07 A3023 RMK A01 T01421065  RH  023%=      5-min Rain = 0
KEN1 102219Z 26004KT 14/M06 A3023 RMK A01 T01411062  RH  024%=      5-min Rain = 0
KEN1 102220Z 26004KT 14/M06 A3022 RMK A01 T01411064  RH  024%=      5-min Rain = 0
KEN1 102221Z 26004KT 14/M06 A3023 RMK A01 T01401063  RH  024%=      5-min Rain = 0
KEN1 102222Z 26004KT 14/M06 A3023 RMK A01 T01391062  RH  024%=      5-min Rain = 0
KEN1 102223Z 26003KT 14/M06 A3023 RMK A01 T01381064  RH  024%=      5-min Rain = 0
KEN1 102224Z 26003KT 14/M07 A3023 RMK A01 T01381065  RH  024%=      5-min Rain = 0
KEN1 102225Z 24003KT 14/M07 A3023 RMK A01 T01391065  RH  024%=      5-min Rain = 0
KEN1 102226Z 25003KT 14/M07 A3023 RMK A01 T01391065  RH  024%=      5-min Rain = 0
KEN1 102227Z 25004KT 14/M06 A3023 RMK A01 T01391062  RH  024%=      5-min Rain = 0
KEN1 102228Z 24005KT 14/M06 A3023 RMK A01 T01401063  RH  024%=      5-min Rain = 0
KEN1 102229Z 22005KT 14/M07 A3023 RMK A01 T01401065  RH  024%=      5-min Rain = 0
KEN1 102230Z 23005KT 14/M07 A3023 RMK A01 T01401066  RH  023%=      5-min Rain = 0
KEN1 102231Z 23004KT 14/M07 A3023 RMK A01 T01401065  RH  024%=      5-min Rain = 0
KEN1 102232Z 21004KT 14/M07 A3023 RMK A01 T01411066  RH  023%=      5-min Rain = 0
KEN1 102233Z 20005KT 14/M07 A3022 RMK A01 T01401069  RH  023%=      5-min Rain = 0
KEN1 102234Z 20006KT 14/M08 A3022 RMK A01 T01401076  RH  022%=      5-min Rain = 0
KEN1 102235Z 21006KT 14/M07 A3022 RMK A01 T01401068  RH  023%=      5-min Rain = 0
KEN1 102236Z 21004KT 14/M06 A3022 RMK A01 T01391064  RH  024%=      5-min Rain = 0
KEN1 102237Z 22003KT 14/M06 A3022 RMK A01 T01381062  RH  024%=      5-min Rain = 0
KEN1 102238Z 22003KT 14/M06 A3022 RMK A01 T01371062  RH  025%=      5-min Rain = 0
KEN1 102239Z 22004KT 14/M06 A3022 RMK A01 T01371062  RH  025%=      5-min Rain = 0
KEN1 102240Z 21004KT 14/M06 A3022 RMK A01 T01361059  RH  025%=      5-min Rain = 0
KEN1 102241Z 22005KT 14/M06 A3022 RMK A01 T01361059  RH  025%=      5-min Rain = 0
KEN1 102242Z 24005KT 14/M06 A3022 RMK A01 T01351057  RH  026%=      5-min Rain = 0
KEN1 102243Z 24005KT 13/M06 A3022 RMK A01 T01341056  RH  026%=      5-min Rain = 0
KEN1 102244Z 25004KT 13/M06 A3022 RMK A01 T01331056  RH  026%=      5-min Rain = 0
KEN1 102245Z 23005KT 13/M06 A3022 RMK A01 T01331056  RH  027%=      5-min Rain = 0
KEN1 102246Z 23006KT 13/M06 A3022 RMK A01 T01321063  RH  025%=      5-min Rain = 0
KEN1 102247Z 22005KT 13/M07 A3022 RMK A01 T01321073  RH  023%=      5-min Rain = 0
KEN1 102248Z 21004KT 13/M08 A3022 RMK A01 T01311078  RH  023%=      5-min Rain = 0
KEN1 102249Z 22005KT 13/M09 A3022 RMK A01 T01301085  RH  022%=      5-min Rain = 0
KEN1 102250Z 21005KT 13/M09 A3022 RMK A01 T01291087  RH  021%=      5-min Rain = 0
KEN1 102251Z 21006KT 13/M09 A3022 RMK A01 T01271088  RH  021%=      5-min Rain = 0
KEN1 102252Z 21006KT 13/M09 A3023 RMK A01 T01261089  RH  021%=      5-min Rain = 0
KEN1 102253Z 21006KT 12/M09 A3022 RMK A01 T01241088  RH  022%=      5-min Rain = 0
KEN1 102254Z 21006KT 12/M09 A3022 RMK A01 T01231089  RH  022%=      5-min Rain = 0
KEN1 102255Z 20007KT 12/M09 A3022 RMK A01 T01211089  RH  022%=      5-min Rain = 0
KEN1 102256Z 21007KT 12/M09 A3022 RMK A01 T01201089  RH  022%=      5-min Rain = 0
KEN1 102257Z 21007KT 12/M09 A3022 RMK A01 T01181088  RH  023%=      5-min Rain = 0
KEN1 102258Z 20007KT 12/M09 A3022 RMK A01 T01161088  RH  023%=      5-min Rain = 0
KEN1 102259Z 20008KT 12/M09 A3023 RMK A01 T01151088  RH  023%=      5-min Rain = 0
KEN1 102300Z 20008KT 11/M09 A3023 RMK A01 T01141088  RH  023%=      5-min Rain = 0
KEN1 102301Z 21008KT 11/M09 A3023 RMK A01 T01131089  RH  023%=      5-min Rain = 0
KEN1 102302Z 21008KT 11/M09 A3023 RMK A01 T01121089  RH  024%=      5-min Rain = 0
KEN1 102303Z 20008KT 11/M09 A3023 RMK A01 T01101089  RH  024%=      5-min Rain = 0
KEN1 102304Z 20008KT 11/M09 A3023 RMK A01 T01091088  RH  024%=      5-min Rain = 0
KEN1 102305Z 20008KT 11/M09 A3023 RMK A01 T01081088  RH  024%=      5-min Rain = 0
KEN1 102306Z 20007KT 11/M09 A3023 RMK A01 T01061088  RH  025%=      5-min Rain = 0
KEN1 102307Z 20007KT 11/M09 A3023 RMK A01 T01051088  RH  025%=      5-min Rain = 0
KEN1 102308Z 20008KT 10/M09 A3022 RMK A01 T01031088  RH  025%=      5-min Rain = 0
KEN1 102309Z 20008KT 10/M09 A3022 RMK A01 T01021089  RH  025%=      5-min Rain = 0
KEN1 102310Z 20008KT 10/M09 A3022 RMK A01 T01011089  RH  025%=      5-min Rain = 0
KEN1 102311Z 20008KT 10/M09 A3022 RMK A01 T01001089  RH  025%=      5-min Rain = 0
KEN1 102312Z 19008KT 10/M09 A3022 RMK A01 T01001090  RH  025%=      5-min Rain = 0
KEN1 102313Z 19007KT 10/M09 A3022 RMK A01 T00981089  RH  026%=      5-min Rain = 0
KEN1 102314Z 18006KT 10/M09 A3022 RMK A01 T00961089  RH  026%=      5-min Rain = 0
KEN1 102315Z 19006KT 09/M09 A3022 RMK A01 T00931089  RH  027%=      5-min Rain = 0
KEN1 102316Z 18006KT 09/M09 A3022 RMK A01 T00921090  RH  027%=      5-min Rain = 0
KEN1 102317Z 19006KT 09/M09 A3023 RMK A01 T00911090  RH  027%=      5-min Rain = 0
KEN1 102318Z 18006KT 09/M09 A3023 RMK A01 T00911090  RH  027%=      5-min Rain = 0
KEN1 102319Z 18006KT 09/M09 A3023 RMK A01 T00901090  RH  027%=      5-min Rain = 0
KEN1 102320Z 18006KT 09/M09 A3023 RMK A01 T00891091  RH  027%=      5-min Rain = 0
KEN1 102321Z 18006KT 09/M09 A3023 RMK A01 T00901091  RH  027%=      5-min Rain = 0
KEN1 102322Z 18006KT 09/M09 A3022 RMK A01 T00901091  RH  027%=      5-min Rain = 0
KEN1 102323Z 18007KT 09/M09 A3022 RMK A01 T00881091  RH  027%=      5-min Rain = 0
KEN1 102324Z 18007KT 09/M09 A3022 RMK A01 T00871091  RH  027%=      5-min Rain = 0
KEN1 102325Z 17007KT 09/M09 A3022 RMK A01 T00851092  RH  028%=      5-min Rain = 0
KEN1 102326Z 17007KT 08/M09 A3022 RMK A01 T00841092  RH  028%=      5-min Rain = 0
KEN1 102327Z 17007KT 08/M09 A3022 RMK A01 T00821092  RH  028%=      5-min Rain = 0
KEN1 102328Z 17007KT 08/M09 A3022 RMK A01 T00791092  RH  029%=      5-min Rain = 0
KEN1 102329Z 17007KT 08/M09 A3022 RMK A01 T00761091  RH  029%=      5-min Rain = 0
KEN1 102330Z 17007KT 07/M09 A3022 RMK A01 T00741091  RH  030%=      5-min Rain = 0
KEN1 102331Z 17008KT 07/M09 A3022 RMK A01 T00721090  RH  031%=      5-min Rain = 0
KEN1 102332Z 17007KT 07/M09 A3022 RMK A01 T00711089  RH  031%=      5-min Rain = 0
KEN1 102333Z 17007KT 07/M09 A3022 RMK A01 T00701089  RH  031%=      5-min Rain = 0
KEN1 102334Z 17008KT 07/M09 A3022 RMK A01 T00701088  RH  032%=      5-min Rain = 0
KEN1 102335Z 17007KT 07/M09 A3022 RMK A01 T00691087  RH  032%=      5-min Rain = 0
KEN1 102336Z 16007KT 07/M09 A3022 RMK A01 T00671088  RH  032%=      5-min Rain = 0
KEN1 102337Z 15007KT 07/M09 A3022 RMK A01 T00651088  RH  032%=      5-min Rain = 0
KEN1 102338Z 16007KT 06/M09 A3022 RMK A01 T00621089  RH  033%=      5-min Rain = 0
KEN1 102339Z 16008KT 06/M09 A3022 RMK A01 T00601088  RH  034%=      5-min Rain = 0
KEN1 102340Z 16008KT 06/M09 A3022 RMK A01 T00601087  RH  034%=      5-min Rain = 0
KEN1 102341Z 16008KT 06/M09 A3022 RMK A01 T00611086  RH  034%=      5-min Rain = 0
KEN1 102342Z 16008KT 06/M09 A3022 RMK A01 T00611086  RH  034%=      5-min Rain = 0
KEN1 102343Z 16008KT 06/M09 A3022 RMK A01 T00611086  RH  034%=      5-min Rain = 0
KEN1 102344Z 16008KT 06/M09 A3022 RMK A01 T00601087  RH  034%=      5-min Rain = 0
KEN1 102345Z 17008KT 06/M09 A3022 RMK A01 T00591087  RH  034%=      5-min Rain = 0
KEN1 102346Z 17008KT 06/M09 A3022 RMK A01 T00601086  RH  034%=      5-min Rain = 0
KEN1 102347Z 17008KT 06/M09 A3022 RMK A01 T00591087  RH  034%=      5-min Rain = 0
KEN1 102348Z 17008KT 06/M09 A3022 RMK A01 T00571087  RH  035%=      5-min Rain = 0
KEN1 102349Z 17008KT 06/M09 A3022 RMK A01 T00561088  RH  035%=      5-min Rain = 0
KEN1 102350Z 16007KT 06/M09 A3022 RMK A01 T00551087  RH  035%=      5-min Rain = 0
KEN1 102351Z 16007KT 05/M09 A3022 RMK A01 T00521088  RH  036%=      5-min Rain = 0
KEN1 102352Z 15007KT 05/M09 A3022 RMK A01 T00501089  RH  036%=      5-min Rain = 0
KEN1 102353Z 15007KT 05/M09 A3022 RMK A01 T00471089  RH  036%=      5-min Rain = 0
KEN1 102354Z 16007KT 05/M09 A3022 RMK A01 T00471089  RH  037%=      5-min Rain = 0
KEN1 102355Z 16007KT 05/M09 A3022 RMK A01 T00461089  RH  037%=      5-min Rain = 0
KEN1 102356Z 16007KT 05/M09 A3022 RMK A01 T00461090  RH  037%=      5-min Rain = 0
KEN1 102357Z 16007KT 05/M09 A3022 RMK A01 T00461090  RH  037%=      5-min Rain = 0
KEN1 102358Z 16007KT 05/M09 A3022 RMK A01 T00451090  RH  037%=      5-min Rain = 0
KEN1 102359Z 16007KT 04/M09 A3022 RMK A01 T00431090  RH  037%=      5-min Rain = 0
KEN1 110000Z 16007KT 04/M09 A3022 RMK A01 T00411090  RH  038%=      5-min Rain = 0
KEN1 110001Z 16008KT 04/M09 A3022 RMK A01 T00391091  RH  038%=      5-min Rain = 0
KEN1 110002Z 16007KT 04/M09 A3022 RMK A01 T00381091  RH  039%=      5-min Rain = 0
KEN1 110003Z 17008KT 04/M09 A3022 RMK A01 T00361091  RH  039%=      5-min Rain = 0
KEN1 110004Z 17007KT 04/M09 A3022 RMK A01 T00351091  RH  039%=      5-min Rain = 0
KEN1 110005Z 17007KT 04/M09 A3022 RMK A01 T00351090  RH  039%=      5-min Rain = 0
KEN1 110006Z 17007KT 03/M09 A3022 RMK A01 T00341091  RH  040%=      5-min Rain = 0
KEN1 110007Z 17008KT 03/M09 A3022 RMK A01 T00341091  RH  040%=      5-min Rain = 0
KEN1 110008Z 17008KT 03/M09 A3022 RMK A01 T00341090  RH  040%=      5-min Rain = 0
KEN1 110009Z 17007KT 04/M09 A3022 RMK A01 T00371090  RH  039%=      5-min Rain = 0
KEN1 110010Z 17007KT 04/M09 A3022 RMK A01 T00371091  RH  039%=      5-min Rain = 0
KEN1 110011Z 17006KT 04/M09 A3022 RMK A01 T00361091  RH  039%=      5-min Rain = 0
KEN1 110012Z 17006KT 04/M09 A3022 RMK A01 T00351092  RH  039%=      5-min Rain = 0
KEN1 110013Z 17007KT 03/M09 A3022 RMK A01 T00331093  RH  039%=      5-min Rain = 0
KEN1 110014Z 17006KT 03/M09 A3023 RMK A01 T00321092  RH  040%=      5-min Rain = 0
KEN1 110015Z 17007KT 03/M09 A3023 RMK A01 T00311091  RH  040%=      5-min Rain = 0
KEN1 110016Z 17007KT 03/M09 A3023 RMK A01 T00311091  RH  040%=      5-min Rain = 0
KEN1 110017Z 18007KT 03/M09 A3023 RMK A01 T00311091  RH  040%=      5-min Rain = 0
KEN1 110018Z 18007KT 03/M09 A3023 RMK A01 T00301091  RH  041%=      5-min Rain = 0
KEN1 110019Z 18007KT 03/M09 A3023 RMK A01 T00291091  RH  041%=      5-min Rain = 0
KEN1 110020Z 19007KT 03/M09 A3023 RMK A01 T00301089  RH  041%=      5-min Rain = 0
KEN1 110021Z 18007KT 03/M09 A3023 RMK A01 T00331088  RH  041%=      5-min Rain = 0
KEN1 110022Z 18007KT 03/M09 A3023 RMK A01 T00341088  RH  041%=      5-min Rain = 0
KEN1 110023Z 18007KT 03/M09 A3023 RMK A01 T00321089  RH  041%=      5-min Rain = 0
KEN1 110024Z 18007KT 03/M09 A3023 RMK A01 T00311090  RH  041%=      5-min Rain = 0
KEN1 110025Z 18006KT 03/M09 A3023 RMK A01 T00281090  RH  041%=      5-min Rain = 0
KEN1 110026Z 18006KT 03/M09 A3023 RMK A01 T00261091  RH  042%=      5-min Rain = 0
KEN1 110027Z 17006KT 02/M09 A3023 RMK A01 T00241091  RH  043%=      5-min Rain = 0
KEN1 110028Z 17006KT 02/M09 A3023 RMK A01 T00221091  RH  043%=      5-min Rain = 0
KEN1 110029Z 17006KT 02/M09 A3023 RMK A01 T00211092  RH  043%=      5-min Rain = 0
KEN1 110030Z 17006KT 02/M09 A3023 RMK A01 T00191092  RH  044%=      5-min Rain = 0
KEN1 110031Z 17006KT 02/M09 A3023 RMK A01 T00161093  RH  044%=      5-min Rain = 0
KEN1 110032Z 17006KT 01/M09 A3023 RMK A01 T00141093  RH  045%=      5-min Rain = 0
KEN1 110033Z 17006KT 01/M09 A3023 RMK A01 T00131093  RH  045%=      5-min Rain = 0
KEN1 110034Z 17006KT 01/M09 A3023 RMK A01 T00121093  RH  046%=      5-min Rain = 0
KEN1 110035Z 17007KT 01/M09 A3023 RMK A01 T00111093  RH  046%=      5-min Rain = 0
KEN1 110036Z 16007KT 01/M09 A3023 RMK A01 T00091094  RH  046%=      5-min Rain = 0
KEN1 110037Z 16007KT 01/M09 A3023 RMK A01 T00091094  RH  046%=      5-min Rain = 0
KEN1 110038Z 16007KT 01/M09 A3023 RMK A01 T00071094  RH  047%=      5-min Rain = 0
KEN1 110039Z 16008KT 01/M09 A3023 RMK A01 T00061094  RH  047%=      5-min Rain = 0
KEN1 110040Z 17007KT 01/M09 A3023 RMK A01 T00061093  RH  047%=      5-min Rain = 0
KEN1 110041Z 17007KT 01/M09 A3023 RMK A01 T00071093  RH  047%=      5-min Rain = 0
KEN1 110042Z 17007KT 01/M09 A3023 RMK A01 T00101092  RH  047%=      5-min Rain = 0
KEN1 110043Z 16007KT 01/M09 A3023 RMK A01 T00121092  RH  046%=      5-min Rain = 0
KEN1 110044Z 16007KT 01/M09 A3023 RMK A01 T00141093  RH  045%=      5-min Rain = 0
KEN1 110045Z 15007KT 01/M09 A3023 RMK A01 T00131094  RH  045%=      5-min Rain = 0
KEN1 110046Z 14007KT 01/M10 A3023 RMK A01 T00101095  RH  045%=      5-min Rain = 0
KEN1 110047Z 15007KT 01/M10 A3023 RMK A01 T00071096  RH  046%=      5-min Rain = 0
KEN1 110048Z 15007KT 01/M10 A3023 RMK A01 T00051096  RH  047%=      5-min Rain = 0
KEN1 110049Z 15007KT 00/M10 A3022 RMK A01 T00031096  RH  048%=      5-min Rain = 0
KEN1 110050Z 16007KT 00/M10 A3023 RMK A01 T00021095  RH  048%=      5-min Rain = 0
KEN1 110051Z 16007KT 00/M10 A3023 RMK A01 T00021095  RH  048%=      5-min Rain = 0
KEN1 110052Z 16007KT 00/M09 A3023 RMK A01 T00021094  RH  048%=      5-min Rain = 0
KEN1 110053Z 15007KT 00/M09 A3023 RMK A01 T00021094  RH  048%=      5-min Rain = 0
KEN1 110054Z 15007KT 00/M10 A3023 RMK A01 T00021095  RH  048%=      5-min Rain = 0
KEN1 110055Z 15007KT 00/M10 A3022 RMK A01 T00011095  RH  048%=      5-min Rain = 0
KEN1 110056Z 14007KT 00/M10 A3022 RMK A01 T00011095  RH  049%=      5-min Rain = 0
KEN1 110057Z 14007KT M00/M10 A3022 RMK A01 T10011095  RH  049%=      5-min Rain = 0
KEN1 110058Z 14007KT M00/M10 A3022 RMK A01 T10021095  RH  049%=      5-min Rain = 0
KEN1 110059Z 14007KT M00/M10 A3023 RMK A01 T10041095  RH  050%=      5-min Rain = 0
KEN1 110100Z 14007KT M00/M10 A3023 RMK A01 T10041095  RH  050%=      5-min Rain = 0
KEN1 110101Z 15007KT M01/M10 A3023 RMK A01 T10051095  RH  051%=      5-min Rain = 0
KEN1 110102Z 15007KT M01/M09 A3023 RMK A01 T10051094  RH  051%=      5-min Rain = 0
KEN1 110103Z 15007KT M01/M10 A3023 RMK A01 T10061095  RH  051%=      5-min Rain = 0
KEN1 110104Z 16007KT M01/M09 A3023 RMK A01 T10061094  RH  051%=      5-min Rain = 0
KEN1 110105Z 16008KT M01/M09 A3023 RMK A01 T10071094  RH  051%=      5-min Rain = 0
KEN1 110106Z 16008KT M01/M09 A3023 RMK A01 T10061094  RH  051%=      5-min Rain = 0
KEN1 110107Z 15008KT M01/M09 A3023 RMK A01 T10061094  RH  052%=      5-min Rain = 0
KEN1 110108Z 15008KT M01/M09 A3023 RMK A01 T10061094  RH  052%=      5-min Rain = 0
KEN1 110109Z 15007KT M01/M09 A3023 RMK A01 T10061093  RH  052%=      5-min Rain = 0
KEN1 110110Z 15008KT M01/M09 A3023 RMK A01 T10071093  RH  052%=      5-min Rain = 0
KEN1 110111Z 15008KT M01/M09 A3023 RMK A01 T10061093  RH  052%=      5-min Rain = 0
KEN1 110112Z 16008KT M01/M09 A3023 RMK A01 T10061093  RH  052%=      5-min Rain = 0
KEN1 110113Z 16008KT M01/M09 A3023 RMK A01 T10061093  RH  052%=      5-min Rain = 0
KEN1 110114Z 16008KT M01/M09 A3023 RMK A01 T10061093  RH  052%=      5-min Rain = 0
KEN1 110115Z 16008KT M01/M09 A3023 RMK A01 T10061092  RH  052%=      5-min Rain = 0
KEN1 110116Z 15008KT M01/M09 A3023 RMK A01 T10061092  RH  052%=      5-min Rain = 0
KEN1 110117Z 16008KT M01/M09 A3023 RMK A01 T10061092  RH  052%=      5-min Rain = 0
KEN1 110118Z 15008KT M01/M09 A3023 RMK A01 T10061092  RH  053%=      5-min Rain = 0
KEN1 110119Z 16008KT M01/M09 A3023 RMK A01 T10061091  RH  052%=      5-min Rain = 0
KEN1 110120Z 16007KT M01/M09 A3023 RMK A01 T10051091  RH  052%=      5-min Rain = 0
KEN1 110121Z 16007KT M00/M09 A3023 RMK A01 T10041091  RH  052%=      5-min Rain = 0
KEN1 110122Z 16007KT M00/M09 A3023 RMK A01 T10041090  RH  052%=      5-min Rain = 0
KEN1 110123Z 16007KT M01/M09 A3023 RMK A01 T10051091  RH  052%=      5-min Rain = 0
KEN1 110124Z 16008KT M01/M09 A3023 RMK A01 T10061091  RH  053%=      5-min Rain = 0
KEN1 110125Z 16008KT M01/M09 A3023 RMK A01 T10071091  RH  053%=      5-min Rain = 0
KEN1 110126Z 16009KT M01/M09 A3023 RMK A01 T10071090  RH  053%=      5-min Rain = 0
KEN1 110127Z 16008KT M01/M09 A3023 RMK A01 T10061090  RH  053%=      5-min Rain = 0
KEN1 110128Z 16008KT M01/M09 A3023 RMK A01 T10071090  RH  053%=      5-min Rain = 0
KEN1 110129Z 16008KT M01/M09 A3023 RMK A01 T10071090  RH  053%=      5-min Rain = 0
KEN1 110130Z 16008KT M01/M09 A3023 RMK A01 T10071090  RH  053%=      5-min Rain = 0
KEN1 110131Z 16008KT M01/M09 A3023 RMK A01 T10071090  RH  054%=      5-min Rain = 0
KEN1 110132Z 15008KT M01/M09 A3023 RMK A01 T10081090  RH  054%=      5-min Rain = 0
KEN1 110133Z 15008KT M01/M09 A3023 RMK A01 T10081090  RH  054%=      5-min Rain = 0
KEN1 110134Z 15008KT M01/M09 A3023 RMK A01 T10081089  RH  054%=      5-min Rain = 0
KEN1 110135Z 15008KT M01/M09 A3023 RMK A01 T10081088  RH  055%=      5-min Rain = 0
KEN1 110136Z 15008KT M01/M09 A3023 RMK A01 T10071088  RH  054%=      5-min Rain = 0
KEN1 110137Z 15008KT M01/M09 A3023 RMK A01 T10081088  RH  054%=      5-min Rain = 0
KEN1 110138Z 15008KT M01/M09 A3023 RMK A01 T10081088  RH  055%=      5-min Rain = 0
KEN1 110139Z 15008KT M01/M09 A3023 RMK A01 T10081088  RH  055%=      5-min Rain = 0
KEN1 110140Z 15008KT M01/M09 A3023 RMK A01 T10071087  RH  055%=      5-min Rain = 0
KEN1 110141Z 15008KT M01/M09 A3023 RMK A01 T10071087  RH  055%=      5-min Rain = 0
KEN1 110142Z 15008KT M01/M09 A3023 RMK A01 T10071087  RH  055%=      5-min Rain = 0
KEN1 110143Z 15008KT M01/M09 A3023 RMK A01 T10071086  RH  055%=      5-min Rain = 0
KEN1 110144Z 15008KT M01/M09 A3023 RMK A01 T10071086  RH  055%=      5-min Rain = 0
KEN1 110145Z 15009KT M01/M09 A3023 RMK A01 T10081087  RH  055%=      5-min Rain = 0
KEN1 110146Z 15009KT M01/M09 A3023 RMK A01 T10091087  RH  055%=      5-min Rain = 0
KEN1 110147Z 15009KT M01/M09 A3023 RMK A01 T10101087  RH  056%=      5-min Rain = 0
KEN1 110148Z 15009KT M01/M09 A3023 RMK A01 T10101086  RH  056%=      5-min Rain = 0
KEN1 110149Z 15009KT M01/M09 A3023 RMK A01 T10091085  RH  056%=      5-min Rain = 0
KEN1 110150Z 15009KT M01/M08 A3023 RMK A01 T10081084  RH  056%=      5-min Rain = 0
KEN1 110151Z 15009KT M01/M08 A3023 RMK A01 T10071084  RH  056%=      5-min Rain = 0
KEN1 110152Z 15009KT M01/M08 A3023 RMK A01 T10061083  RH  056%=      5-min Rain = 0
KEN1 110153Z 15009KT M00/M08 A3023 RMK A01 T10041083  RH  055%=      5-min Rain = 0
KEN1 110154Z 15009KT M00/M08 A3023 RMK A01 T10041083  RH  055%=      5-min Rain = 0
KEN1 110155Z 15008KT M00/M09 A3023 RMK A01 T10041085  RH  055%=      5-min Rain = 0
KEN1 110156Z 15008KT M01/M09 A3023 RMK A01 T10061086  RH  055%=      5-min Rain = 0
KEN1 110157Z 14008KT M01/M09 A3023 RMK A01 T10071086  RH  055%=      5-min Rain = 0
KEN1 110158Z 14008KT M01/M09 A3023 RMK A01 T10091086  RH  056%=      5-min Rain = 0
KEN1 110159Z 14008KT M01/M09 A3023 RMK A01 T10101086  RH  056%=      5-min Rain = 0
KEN1 110200Z 14008KT M01/M09 A3023 RMK A01 T10111086  RH  057%=      5-min Rain = 0
KEN1 110201Z 14008KT M01/M09 A3023 RMK A01 T10121086  RH  057%=      5-min Rain = 0
KEN1 110202Z 15008KT M01/M09 A3023 RMK A01 T10141086  RH  058%=      5-min Rain = 0
KEN1 110203Z 15008KT M01/M09 A3023 RMK A01 T10141085  RH  058%=      5-min Rain = 0
KEN1 110204Z 15008KT M01/M09 A3023 RMK A01 T10141085  RH  059%=      5-min Rain = 0
KEN1 110205Z 15008KT M01/M08 A3023 RMK A01 T10141084  RH  059%=      5-min Rain = 0
KEN1 110206Z 15008KT M01/M08 A3023 RMK A01 T10131083  RH  059%=      5-min Rain = 0
KEN1 110207Z 15008KT M01/M08 A3023 RMK A01 T10131082  RH  059%=      5-min Rain = 0
KEN1 110208Z 15008KT M01/M08 A3023 RMK A01 T10131082  RH  059%=      5-min Rain = 0
KEN1 110209Z 15008KT M01/M08 A3023 RMK A01 T10141082  RH  060%=      5-min Rain = 0
KEN1 110210Z 15008KT M01/M08 A3023 RMK A01 T10141082  RH  060%=      5-min Rain = 0
KEN1 110211Z 15008KT M01/M08 A3023 RMK A01 T10141081  RH  060%=      5-min Rain = 0
KEN1 110212Z 16008KT M01/M08 A3023 RMK A01 T10131081  RH  060%=      5-min Rain = 0
KEN1 110213Z 15008KT M01/M08 A3023 RMK A01 T10131081  RH  060%=      5-min Rain = 0
KEN1 110214Z 16008KT M01/M08 A3023 RMK A01 T10141081  RH  060%=      5-min Rain = 0
KEN1 110215Z 16008KT M01/M08 A3023 RMK A01 T10141081  RH  060%=      5-min Rain = 0
KEN1 110216Z 17009KT M01/M08 A3023 RMK A01 T10141081  RH  061%=      5-min Rain = 0
KEN1 110217Z 17009KT M01/M08 A3023 RMK A01 T10141079  RH  061%=      5-min Rain = 0
KEN1 110218Z 17008KT M01/M08 A3023 RMK A01 T10111076  RH  061%=      5-min Rain = 0
KEN1 110219Z 17008KT M01/M08 A3023 RMK A01 T10101076  RH  061%=      5-min Rain = 0
KEN1 110220Z 17008KT M01/M08 A3023 RMK A01 T10111077  RH  061%=      5-min Rain = 0
KEN1 110221Z 17008KT M01/M08 A3023 RMK A01 T10111076  RH  061%=      5-min Rain = 0
KEN1 110222Z 17008KT M01/M07 A3023 RMK A01 T10091073  RH  062%=      5-min Rain = 0
KEN1 110223Z 17008KT M01/M07 A3023 RMK A01 T10081072  RH  061%=      5-min Rain = 0
KEN1 110224Z 17008KT M01/M07 A3023 RMK A01 T10071072  RH  061%=      5-min Rain = 0
KEN1 110225Z 17008KT M01/M07 A3023 RMK A01 T10051070  RH  061%=      5-min Rain = 0
KEN1 110226Z 17007KT M00/M07 A3023 RMK A01 T10041069  RH  061%=      5-min Rain = 0
KEN1 110227Z 17008KT M00/M07 A3023 RMK A01 T10041070  RH  061%=      5-min Rain = 0
KEN1 110228Z 17008KT M00/M07 A3023 RMK A01 T10041071  RH  061%=      5-min Rain = 0
KEN1 110229Z 17008KT M00/M07 A3023 RMK A01 T10041070  RH  061%=      5-min Rain = 0
KEN1 110230Z 17008KT M00/M07 A3023 RMK A01 T10031069  RH  061%=      5-min Rain = 0
KEN1 110231Z 17008KT M00/M07 A3023 RMK A01 T10031068  RH  061%=      5-min Rain = 0
KEN1 110232Z 18009KT M00/M07 A3023 RMK A01 T10011067  RH  061%=      5-min Rain = 0
KEN1 110233Z 18009KT 00/M07 A3023 RMK A01 T00011065  RH  061%=      5-min Rain = 0
KEN1 110234Z 18008KT 00/M07 A3023 RMK A01 T00031065  RH  060%=      5-min Rain = 0
KEN1 110235Z 18008KT 00/M07 A3023 RMK A01 T00031066  RH  060%=      5-min Rain = 0
KEN1 110236Z 17008KT 00/M07 A3023 RMK A01 T00041066  RH  060%=      5-min Rain = 0
KEN1 110237Z 18009KT 01/M07 A3023 RMK A01 T00051065  RH  059%=      5-min Rain = 0
KEN1 110238Z 18009KT 01/M07 A3023 RMK A01 T00051065  RH  059%=      5-min Rain = 0
KEN1 110239Z 18008KT 01/M07 A3023 RMK A01 T00061065  RH  059%=      5-min Rain = 0
KEN1 110240Z 18009KT 01/M07 A3023 RMK A01 T00051065  RH  059%=      5-min Rain = 0
KEN1 110241Z 17008KT 01/M07 A3023 RMK A01 T00051065  RH  059%=      5-min Rain = 0
KEN1 110242Z 18008KT 01/M07 A3023 RMK A01 T00051065  RH  059%=      5-min Rain = 0
KEN1 110243Z 17009KT 01/M06 A3023 RMK A01 T00061064  RH  059%=      5-min Rain = 0
KEN1 110244Z 18009KT 01/M06 A3023 RMK A01 T00081063  RH  059%=      5-min Rain = 0
KEN1 110245Z 18009KT 01/M06 A3023 RMK A01 T00091063  RH  059%=      5-min Rain = 0
KEN1 110246Z 18008KT 01/M06 A3023 RMK A01 T00111062  RH  059%=      5-min Rain = 0
KEN1 110247Z 17007KT 01/M06 A3023 RMK A01 T00111063  RH  058%=      5-min Rain = 0
KEN1 110248Z 16007KT 01/M07 A3024 RMK A01 T00081067  RH  057%=      5-min Rain = 0
KEN1 110249Z 16007KT 00/M07 A3024 RMK A01 T00031071  RH  057%=      5-min Rain = 0
KEN1 110250Z 17007KT M00/M07 A3024 RMK A01 T10021073  RH  059%=      5-min Rain = 0
KEN1 110251Z 17007KT M01/M07 A3024 RMK A01 T10061074  RH  060%=      5-min Rain = 0
KEN1 110252Z 17007KT M01/M07 A3024 RMK A01 T10081073  RH  062%=      5-min Rain = 0
KEN1 110253Z 17007KT M01/M07 A3024 RMK A01 T10091071  RH  063%=      5-min Rain = 0
KEN1 110254Z 17006KT M01/M07 A3024 RMK A01 T10091069  RH  063%=      5-min Rain = 0
KEN1 110255Z 17006KT M01/M07 A3024 RMK A01 T10081069  RH  063%=      5-min Rain = 0
KEN1 110256Z 17007KT M01/M07 A3024 RMK A01 T10071069  RH  063%=      5-min Rain = 0
KEN1 110257Z 17007KT M01/M07 A3023 RMK A01 T10071069  RH  063%=      5-min Rain = 0
KEN1 110258Z 18006KT M01/M07 A3023 RMK A01 T10071068  RH  063%=      5-min Rain = 0
KEN1 110259Z 18006KT M01/M07 A3023 RMK A01 T10061068  RH  063%=      5-min Rain = 0
KEN1 110300Z 18006KT M01/M07 A3023 RMK A01 T10061068  RH  063%=      5-min Rain = 0
KEN1 110301Z 17006KT M01/M07 A3023 RMK A01 T10051069  RH  062%=      5-min Rain = 0
KEN1 110302Z 17006KT M01/M07 A3023 RMK A01 T10071071  RH  062%=      5-min Rain = 0
KEN1 110303Z 17005KT M01/M07 A3023 RMK A01 T10081072  RH  062%=      5-min Rain = 0
KEN1 110304Z 16005KT M01/M07 A3023 RMK A01 T10091072  RH  062%=      5-min Rain = 0
KEN1 110305Z 16005KT M01/M07 A3023 RMK A01 T10121074  RH  063%=      5-min Rain = 0
KEN1 110306Z 16005KT M01/M08 A3023 RMK A01 T10141075  RH  063%=      5-min Rain = 0
KEN1 110307Z 16005KT M02/M07 A3023 RMK A01 T10151074  RH  064%=      5-min Rain = 0
KEN1 110308Z 16005KT M02/M08 A3023 RMK A01 T10171075  RH  065%=      5-min Rain = 0
KEN1 110309Z 15005KT M02/M08 A3023 RMK A01 T10181075  RH  065%=      5-min Rain = 0
KEN1 110310Z 15005KT M02/M08 A3023 RMK A01 T10201076  RH  066%=      5-min Rain = 0
KEN1 110311Z 14005KT M02/M08 A3023 RMK A01 T10211075  RH  067%=      5-min Rain = 0
KEN1 110312Z 14005KT M02/M08 A3023 RMK A01 T10231075  RH  067%=      5-min Rain = 0
KEN1 110313Z 14006KT M02/M08 A3023 RMK A01 T10241075  RH  068%=      5-min Rain = 0
KEN1 110314Z 14006KT M02/M08 A3023 RMK A01 T10241075  RH  068%=      5-min Rain = 0
KEN1 110315Z 15006KT M02/M07 A3023 RMK A01 T10241073  RH  069%=      5-min Rain = 0
KEN1 110316Z 15005KT M02/M07 A3023 RMK A01 T10231072  RH  069%=      5-min Rain = 0
KEN1 110317Z 15006KT M02/M07 A3023 RMK A01 T10241073  RH  069%=      5-min Rain = 0
KEN1 110318Z 16005KT M03/M07 A3023 RMK A01 T10251072  RH  070%=      5-min Rain = 0
KEN1 110319Z 16005KT M03/M07 A3023 RMK A01 T10251072  RH  070%=      5-min Rain = 0
KEN1 110320Z 17005KT M03/M07 A3023 RMK A01 T10251071  RH  071%=      5-min Rain = 0
KEN1 110321Z 16006KT M02/M07 A3023 RMK A01 T10231069  RH  071%=      5-min Rain = 0
KEN1 110322Z 16006KT M02/M07 A3023 RMK A01 T10221069  RH  070%=      5-min Rain = 0
KEN1 110323Z 16006KT M02/M07 A3023 RMK A01 T10221070  RH  070%=      5-min Rain = 0
KEN1 110324Z 15006KT M02/M07 A3023 RMK A01 T10221070  RH  070%=      5-min Rain = 0
KEN1 110325Z 15005KT M02/M07 A3023 RMK A01 T10221070  RH  070%=      5-min Rain = 0
KEN1 110326Z 16005KT M02/M07 A3023 RMK A01 T10231071  RH  070%=      5-min Rain = 0
KEN1 110327Z 17005KT M02/M07 A3023 RMK A01 T10241070  RH  071%=      5-min Rain = 0
KEN1 110328Z 16004KT M02/M07 A3023 RMK A01 T10231068  RH  071%=      5-min Rain = 0
KEN1 110329Z 17005KT M02/M07 A3023 RMK A01 T10211067  RH  071%=      5-min Rain = 0
KEN1 110330Z 17004KT M02/M07 A3023 RMK A01 T10191067  RH  070%=      5-min Rain = 0
KEN1 110331Z 16005KT M02/M07 A3023 RMK A01 T10191067  RH  069%=      5-min Rain = 0
KEN1 110332Z 17005KT M02/M07 A3023 RMK A01 T10191067  RH  069%=      5-min Rain = 0
KEN1 110333Z 17005KT M02/M07 A3023 RMK A01 T10181067  RH  069%=      5-min Rain = 0
KEN1 110334Z 16005KT M02/M07 A3023 RMK A01 T10181067  RH  069%=      5-min Rain = 0
KEN1 110335Z 17004KT M02/M07 A3023 RMK A01 T10171067  RH  069%=      5-min Rain = 0
KEN1 110336Z 18004KT M02/M07 A3023 RMK A01 T10171068  RH  068%=      5-min Rain = 0
KEN1 110337Z 19004KT M02/M07 A3023 RMK A01 T10171067  RH  069%=      5-min Rain = 0
KEN1 110338Z 17003KT M02/M07 A3023 RMK A01 T10151065  RH  068%=      5-min Rain = 0
KEN1 110339Z 17004KT M01/M07 A3023 RMK A01 T10141067  RH  068%=      5-min Rain = 0
KEN1 110340Z 17004KT M02/M07 A3023 RMK A01 T10151068  RH  067%=      5-min Rain = 0
KEN1 110341Z 18004KT M02/M07 A3023 RMK A01 T10171069  RH  068%=      5-min Rain = 0
KEN1 110342Z 17004KT M02/M07 A3023 RMK A01 T10171068  RH  068%=      5-min Rain = 0
KEN1 110343Z 17004KT M02/M07 A3023 RMK A01 T10181068  RH  068%=      5-min Rain = 0
KEN1 110344Z 17004KT M02/M07 A3023 RMK A01 T10181069  RH  068%=      5-min Rain = 0
KEN1 110345Z 17004KT M02/M07 A3023 RMK A01 T10191070  RH  068%=      5-min Rain = 0
KEN1 110346Z 17004KT M02/M07 A3023 RMK A01 T10191069  RH  069%=      5-min Rain = 0
KEN1 110347Z 16005KT M02/M07 A3023 RMK A01 T10181068  RH  069%=      5-min Rain = 0
KEN1 110348Z 16005KT M02/M07 A3023 RMK A01 T10181069  RH  069%=      5-min Rain = 0
KEN1 110349Z 16005KT M02/M07 A3023 RMK A01 T10201069  RH  069%=      5-min Rain = 0
KEN1 110350Z 15005KT M02/M07 A3023 RMK A01 T10211070  RH  069%=      5-min Rain = 0
KEN1 110351Z 16005KT M02/M07 A3023 RMK A01 T10221070  RH  070%=      5-min Rain = 0
KEN1 110352Z 16004KT M02/M07 A3023 RMK A01 T10231069  RH  070%=      5-min Rain = 0
KEN1 110353Z 17004KT M02/M07 A3023 RMK A01 T10221068  RH  071%=      5-min Rain = 0
KEN1 110354Z 17004KT M02/M07 A3023 RMK A01 T10211068  RH  071%=      5-min Rain = 0
KEN1 110355Z 17004KT M02/M07 A3023 RMK A01 T10211068  RH  070%=      5-min Rain = 0
KEN1 110356Z 16004KT M02/M07 A3023 RMK A01 T10211068  RH  070%=      5-min Rain = 0
KEN1 110357Z 15005KT M02/M07 A3023 RMK A01 T10211069  RH  070%=      5-min Rain = 0
KEN1 110358Z 15006KT M02/M07 A3023 RMK A01 T10221069  RH  070%=      5-min Rain = 0
KEN1 110359Z 16006KT M02/M07 A3023 RMK A01 T10231069  RH  071%=      5-min Rain = 0
KEN1 110400Z 16005KT M02/M07 A3023 RMK A01 T10221068  RH  071%=      5-min Rain = 0
KEN1 110401Z 16005KT M02/M07 A3023 RMK A01 T10201066  RH  071%=      5-min Rain = 0
KEN1 110402Z 17006KT M02/M07 A3023 RMK A01 T10191066  RH  070%=      5-min Rain = 0
KEN1 110403Z 17005KT M02/M07 A3023 RMK A01 T10191066  RH  070%=      5-min Rain = 0
KEN1 110404Z 17005KT M02/M07 A3023 RMK A01 T10191067  RH  070%=      5-min Rain = 0
KEN1 110405Z 17005KT M02/M07 A3023 RMK A01 T10191066  RH  070%=      5-min Rain = 0
KEN1 110406Z 17005KT M02/M07 A3023 RMK A01 T10181065  RH  070%=      5-min Rain = 0
KEN1 110407Z 17005KT M02/M07 A3023 RMK A01 T10181065  RH  070%=      5-min Rain = 0
KEN1 110408Z 16005KT M02/M06 A3023 RMK A01 T10161064  RH  070%=      5-min Rain = 0
KEN1 110409Z 16005KT M02/M06 A3023 RMK A01 T10161063  RH  070%=      5-min Rain = 0
KEN1 110410Z 16006KT M02/M06 A3023 RMK A01 T10151062  RH  070%=      5-min Rain = 0
KEN1 110411Z 16006KT M01/M06 A3023 RMK A01 T10141062  RH  070%=      5-min Rain = 0
KEN1 110412Z 16006KT M01/M06 A3023 RMK A01 T10141062  RH  070%=      5-min Rain = 0
KEN1 110413Z 16006KT M01/M06 A3022 RMK A01 T10141062  RH  070%=      5-min Rain = 0
KEN1 110414Z 17006KT M01/M06 A3022 RMK A01 T10141061  RH  070%=      5-min Rain = 0
KEN1 110415Z 17006KT M01/M06 A3022 RMK A01 T10131060  RH  070%=      5-min Rain = 0
KEN1 110416Z 17006KT M01/M06 A3022 RMK A01 T10121058  RH  071%=      5-min Rain = 0
KEN1 110417Z 17006KT M01/M06 A3022 RMK A01 T10111057  RH  071%=      5-min Rain = 0
KEN1 110418Z 17006KT M01/M06 A3022 RMK A01 T10101057  RH  071%=      5-min Rain = 0
KEN1 110419Z 17006KT M01/M06 A3022 RMK A01 T10091056  RH  071%=      5-min Rain = 0
KEN1 110420Z 17006KT M01/M06 A3022 RMK A01 T10091056  RH  071%=      5-min Rain = 0
KEN1 110421Z 17006KT M01/M06 A3022 RMK A01 T10091055  RH  071%=      5-min Rain = 0
KEN1 110422Z 18006KT M01/M05 A3022 RMK A01 T10091053  RH  072%=      5-min Rain = 0
KEN1 110423Z 18006KT M01/M05 A3022 RMK A01 T10091052  RH  073%=      5-min Rain = 0
KEN1 110424Z 18007KT M01/M05 A3022 RMK A01 T10081050  RH  073%=      5-min Rain = 0
KEN1 110425Z 18006KT M01/M05 A3022 RMK A01 T10081049  RH  074%=      5-min Rain = 0
KEN1 110426Z 18007KT M01/M05 A3022 RMK A01 T10071047  RH  074%=      5-min Rain = 0
KEN1 110427Z 18006KT M01/M04 A3022 RMK A01 T10051044  RH  075%=      5-min Rain = 0
KEN1 110428Z 18007KT M00/M04 A3022 RMK A01 T10011041  RH  075%=      5-min Rain = 0
KEN1 110429Z 18006KT 00/M04 A3022 RMK A01 T00011040  RH  074%=      5-min Rain = 0
KEN1 110430Z 18006KT 00/M04 A3022 RMK A01 T00021039  RH  074%=      5-min Rain = 0
KEN1 110431Z 18006KT 00/M04 A3022 RMK A01 T00031040  RH  073%=      5-min Rain = 0
KEN1 110432Z 18006KT 00/M04 A3022 RMK A01 T00041039  RH  073%=      5-min Rain = 0
KEN1 110433Z 18006KT 01/M04 A3022 RMK A01 T00061037  RH  073%=      5-min Rain = 0
KEN1 110434Z 18006KT 01/M04 A3022 RMK A01 T00071036  RH  073%=      5-min Rain = 0
KEN1 110435Z 18007KT 01/M04 A3022 RMK A01 T00081036  RH  072%=      5-min Rain = 0
KEN1 110436Z 17006KT 01/M04 A3022 RMK A01 T00091035  RH  072%=      5-min Rain = 0
KEN1 110437Z 18007KT 01/M04 A3022 RMK A01 T00101035  RH  072%=      5-min Rain = 0
KEN1 110438Z 18007KT 01/M04 A3022 RMK A01 T00101035  RH  072%=      5-min Rain = 0
KEN1 110439Z 18007KT 01/M04 A3022 RMK A01 T00111035  RH  071%=      5-min Rain = 0
KEN1 110440Z 18007KT 01/M04 A3022 RMK A01 T00101036  RH  071%=      5-min Rain = 0
KEN1 110441Z 18008KT 01/M04 A3022 RMK A01 T00091035  RH  072%=      5-min Rain = 0
KEN1 110442Z 18008KT 01/M03 A3022 RMK A01 T00111031  RH  074%=      5-min Rain = 0
KEN1 110443Z 18007KT 01/M03 A3022 RMK A01 T00141028  RH  073%=      5-min Rain = 0
KEN1 110444Z 18007KT 02/M03 A3022 RMK A01 T00161028  RH  073%=      5-min Rain = 0
KEN1 110445Z 17006KT 02/M03 A3022 RMK A01 T00161028  RH  072%=      5-min Rain = 0
KEN1 110446Z 17006KT 02/M03 A3022 RMK A01 T00161028  RH  072%=      5-min Rain = 0
KEN1 110447Z 17006KT 02/M03 A3022 RMK A01 T00161029  RH  072%=      5-min Rain = 0
KEN1 110448Z 18006KT 02/M03 A3022 RMK A01 T00151029  RH  072%=      5-min Rain = 0
KEN1 110449Z 18007KT 01/M03 A3022 RMK A01 T00141030  RH  073%=      5-min Rain = 0
KEN1 110450Z 18006KT 01/M03 A3022 RMK A01 T00141029  RH  073%=      5-min Rain = 0
KEN1 110451Z 18007KT 01/M03 A3022 RMK A01 T00141028  RH  073%=      5-min Rain = 0
KEN1 110452Z 18007KT 01/M03 A3022 RMK A01 T00141028  RH  074%=      5-min Rain = 0
KEN1 110453Z 18006KT 01/M03 A3022 RMK A01 T00141028  RH  074%=      5-min Rain = 0
KEN1 110454Z 18006KT 01/M03 A3022 RMK A01 T00141028  RH  074%=      5-min Rain = 0
KEN1 110455Z 18007KT 01/M03 A3022 RMK A01 T00141028  RH  074%=      5-min Rain = 0
KEN1 110456Z 18007KT 02/M03 A3022 RMK A01 T00151027  RH  074%=      5-min Rain = 0
KEN1 110457Z 18007KT 02/M03 A3022 RMK A01 T00161027  RH  073%=      5-min Rain = 0
KEN1 110458Z 18007KT 02/M03 A3022 RMK A01 T00161027  RH  073%=      5-min Rain = 0
KEN1 110459Z 18007KT 02/M03 A3021 RMK A01 T00171027  RH  073%=      5-min Rain = 0
KEN1 110500Z 17008KT 02/M03 A3021 RMK A01 T00181027  RH  072%=      5-min Rain = 0
KEN1 110501Z 17008KT 02/M03 A3021 RMK A01 T00181028  RH  071%=      5-min Rain = 0
KEN1 110502Z 17008KT 02/M03 A3021 RMK A01 T00191029  RH  071%=      5-min Rain = 0
KEN1 110503Z 17008KT 02/M03 A3021 RMK A01 T00201029  RH  070%=      5-min Rain = 0
KEN1 110504Z 17008KT 02/M03 A3021 RMK A01 T00221030  RH  069%=      5-min Rain = 0
KEN1 110505Z 18009KT 02/M03 A3021 RMK A01 T00221030  RH  068%=      5-min Rain = 0
KEN1 110506Z 18009KT 02/M03 A3021 RMK A01 T00221032  RH  068%=      5-min Rain = 0
KEN1 110507Z 18009KT 02/M03 A3021 RMK A01 T00221033  RH  067%=      5-min Rain = 0
KEN1 110508Z 19009KT 02/M03 A3021 RMK A01 T00221034  RH  066%=      5-min Rain = 0
KEN1 110509Z 19009KT 02/M04 A3021 RMK A01 T00231035  RH  066%=      5-min Rain = 0
KEN1 110510Z 19009KT 02/M04 A3021 RMK A01 T00221036  RH  065%=      5-min Rain = 0
KEN1 110511Z 19010KT 02/M04 A3021 RMK A01 T00221037  RH  065%=      5-min Rain = 0
KEN1 110512Z 19009KT 02/M04 A3021 RMK A01 T00211037  RH  065%=      5-min Rain = 0
KEN1 110513Z 18009KT 02/M04 A3021 RMK A01 T00211037  RH  065%=      5-min Rain = 0
KEN1 110514Z 18009KT 02/M04 A3021 RMK A01 T00211038  RH  065%=      5-min Rain = 0
KEN1 110515Z 18009KT 02/M04 A3021 RMK A01 T00211038  RH  065%=      5-min Rain = 0
KEN1 110516Z 18008KT 02/M04 A3021 RMK A01 T00201039  RH  065%=      5-min Rain = 0
KEN1 110517Z 18007KT 02/M04 A3021 RMK A01 T00201039  RH  065%=      5-min Rain = 0
KEN1 110518Z 18007KT 02/M04 A3021 RMK A01 T00191040  RH  065%=      5-min Rain = 0
KEN1 110519Z 18008KT 02/M04 A3021 RMK A01 T00181040  RH  065%=      5-min Rain = 0
KEN1 110520Z 18007KT 02/M04 A3021 RMK A01 T00191040  RH  065%=      5-min Rain = 0
KEN1 110521Z 18006KT 02/M04 A3021 RMK A01 T00191040  RH  065%=      5-min Rain = 0
KEN1 110522Z 18006KT 02/M04 A3021 RMK A01 T00191041  RH  065%=      5-min Rain = 0
KEN1 110523Z 17005KT 02/M04 A3021 RMK A01 T00181041  RH  065%=      5-min Rain = 0
KEN1 110524Z 17005KT 02/M04 A3021 RMK A01 T00171042  RH  065%=      5-min Rain = 0
KEN1 110525Z 16005KT 02/M04 A3021 RMK A01 T00161043  RH  065%=      5-min Rain = 0
KEN1 110526Z 16006KT 02/M04 A3021 RMK A01 T00151044  RH  065%=      5-min Rain = 0
KEN1 110527Z 16006KT 01/M04 A3021 RMK A01 T00141044  RH  065%=      5-min Rain = 0
KEN1 110528Z 16007KT 01/M04 A3021 RMK A01 T00141043  RH  065%=      5-min Rain = 0
KEN1 110529Z 17007KT 01/M04 A3021 RMK A01 T00141043  RH  065%=      5-min Rain = 0
KEN1 110530Z 17007KT 01/M04 A3021 RMK A01 T00141043  RH  066%=      5-min Rain = 0
KEN1 110531Z 17007KT 01/M04 A3021 RMK A01 T00141043  RH  066%=      5-min Rain = 0
KEN1 110532Z 17007KT 02/M04 A3021 RMK A01 T00151042  RH  066%=      5-min Rain = 0
KEN1 110533Z 17007KT 02/M04 A3021 RMK A01 T00161042  RH  065%=      5-min Rain = 0
KEN1 110534Z 17006KT 02/M04 A3021 RMK A01 T00161042  RH  065%=      5-min Rain = 0
KEN1 110535Z 17006KT 02/M04 A3021 RMK A01 T00161042  RH  065%=      5-min Rain = 0
KEN1 110536Z 18006KT 02/M04 A302 RMK A01 T00161042  RH  065%=      5-min Rain = 0
KEN1 110537Z 18006KT 02/M04 A302 RMK A01 T00171042  RH  065%=      5-min Rain = 0
KEN1 110538Z 18007KT 02/M04 A302 RMK A01 T00181042  RH  064%=      5-min Rain = 0
KEN1 110539Z 19006KT 02/M04 A302 RMK A01 T00191042  RH  064%=      5-min Rain = 0
KEN1 110540Z 18007KT 02/M04 A302 RMK A01 T00191043  RH  064%=      5-min Rain = 0
KEN1 110541Z 18007KT 02/M04 A302 RMK A01 T00181043  RH  064%=      5-min Rain = 0
KEN1 110542Z 18008KT 02/M04 A302 RMK A01 T00181043  RH  064%=      5-min Rain = 0
KEN1 110543Z 18009KT 02/M04 A302 RMK A01 T00201042  RH  064%=      5-min Rain = 0
KEN1 110544Z 18008KT 02/M04 A302 RMK A01 T00211042  RH  063%=      5-min Rain = 0
KEN1 110545Z 18008KT 02/M04 A302 RMK A01 T00201042  RH  063%=      5-min Rain = 0
KEN1 110546Z 18009KT 02/M04 A302 RMK A01 T00201043  RH  063%=      5-min Rain = 0
KEN1 110547Z 18009KT 02/M04 A302 RMK A01 T00191043  RH  064%=      5-min Rain = 0
KEN1 110548Z 18009KT 02/M04 A302 RMK A01 T00181043  RH  064%=      5-min Rain = 0
KEN1 110549Z 18009KT 02/M04 A302 RMK A01 T00181042  RH  064%=      5-min Rain = 0
KEN1 110550Z 18010KT 02/M04 A302 RMK A01 T00171042  RH  065%=      5-min Rain = 0
KEN1 110551Z 18009KT 02/M04 A302 RMK A01 T00171042  RH  065%=      5-min Rain = 0
KEN1 110552Z 18010KT 02/M04 A302 RMK A01 T00171042  RH  065%=      5-min Rain = 0
KEN1 110553Z 18010KT 02/M04 A302 RMK A01 T00161042  RH  065%=      5-min Rain = 0
KEN1 110554Z 18010KT 02/M04 A302 RMK A01 T00171041  RH  065%=      5-min Rain = 0
KEN1 110555Z 18010KT 02/M04 A302 RMK A01 T00171041  RH  065%=      5-min Rain = 0
KEN1 110556Z 18010KT 02/M04 A302 RMK A01 T00171041  RH  066%=      5-min Rain = 0
KEN1 110557Z 17009KT 02/M04 A302 RMK A01 T00171040  RH  066%=      5-min Rain = 0
KEN1 110558Z 18010KT 02/M04 A302 RMK A01 T00171039  RH  066%=      5-min Rain = 0
KEN1 110559Z 18009KT 02/M04 A302 RMK A01 T00181038  RH  066%=      5-min Rain = 0

Page generated in 0.0711 seconds.